CW6353 Weather Reports


Display with metric or nautical units.
time (UTC)temp
F
wind
direction
speed
MPH
gust
MPH
rain 1hr
in
rain 24hr
in
rain mn
in
humidity
%
barometer
mb
20200410102516 57 340 9.0 17.0 0.00 0.08 0.00 50 1013.4
20200410102509 58 341 8.0 17.0 0.00 0.08 0.00 50 1013.5
20200410102409 58 339 7.0 14.0 0.00 0.08 0.00 51 1013.4
20200410102308 58 338 8.0 13.0 0.00 0.08 0.00 51 1013.4
20200410102204 58 339 8.0 13.0 0.00 0.08 0.00 51 1013.3
20200410102106 58 338 7.0 13.0 0.00 0.08 0.00 51 1013.3
20200410102009 58 339 7.0 12.0 0.00 0.08 0.00 53 1013.4
20200410101904 58 339 8.0 13.0 0.00 0.08 0.00 51 1013.4
20200410101805 58 339 8.0 14.0 0.00 0.08 0.00 51 1013.4
20200410101707 58 340 8.0 14.0 0.00 0.08 0.00 51 1013.2
20200410101609 58 339 9.0 14.0 0.00 0.08 0.00 51 1013.2
20200410101509 58 339 9.0 17.0 0.00 0.08 0.00 50 1013.3
20200410101412 58 341 9.0 17.0 0.00 0.08 0.00 51 1013.2
20200410101306 58 342 9.0 17.0 0.00 0.08 0.00 50 1013.2
20200410101204 58 339 10.0 19.0 0.00 0.08 0.00 50 1013.3
20200410101105 58 339 10.0 19.0 0.00 0.08 0.00 50 1013.2
20200410101003 58 338 10.0 19.0 0.00 0.08 0.00 50 1013.2
20200410100904 58 338 10.0 19.0 0.00 0.08 0.00 50 1013.2
20200410100804 58 338 10.0 19.0 0.00 0.08 0.00 50 1013.1
20200410100703 58 337 10.0 19.0 0.00 0.08 0.00 50 1013.1
20200410100603 58 336 9.0 19.0 0.00 0.08 0.00 50 1013.0
20200410100515 58 344 8.0 19.0 0.00 0.08 0.00 50 1012.9
20200410100504 58 337 9.0 19.0 0.00 0.08 0.00 50 1013.2
20200410100403 58 335 8.0 19.0 0.00 0.08 0.00 50 1013.0
20200410100303 58 335 9.0 19.0 0.00 0.08 0.00 51 1013.1
20200410100204 58 337 8.0 16.0 0.00 0.08 0.00 51 1013.0
20200410100104 58 337 8.0 16.0 0.00 0.08 0.00 51 1013.0
20200410100003 58 335 7.0 14.0 0.00 0.08 0.00 52 1013.0
20200410095903 58 334 7.0 13.0 0.00 0.08 0.00 52 1013.0
20200410095804 58 334 7.0 13.0 0.00 0.08 0.00 52 1013.0
20200410095704 58 333 7.0 13.0 0.00 0.08 0.00 52 1012.9
20200410095603 58 333 7.0 13.0 0.00 0.08 0.00 52 1012.9
20200410095515 58 344 7.0 13.0 0.00 0.08 0.00 52 1012.8
20200410095503 58 333 7.0 13.0 0.00 0.08 0.00 52 1012.8
20200410095403 58 334 8.0 14.0 0.00 0.08 0.00 50 1012.9
20200410095306 58 332 8.0 14.0 0.00 0.08 0.00 51 1013.0
20200410095204 58 331 8.0 14.0 0.00 0.08 0.00 51 1012.8
20200410095103 58 331 8.0 14.0 0.00 0.08 0.00 51 1012.8
20200410095003 58 330 7.0 14.0 0.00 0.08 0.00 51 1012.8
20200410094904 58 330 7.0 14.0 0.00 0.08 0.00 50 1012.7
20200410094804 58 329 7.0 14.0 0.00 0.08 0.00 51 1012.8
20200410094703 59 328 8.0 15.0 0.00 0.08 0.00 50 1012.7
20200410094603 59 327 8.0 17.0 0.00 0.08 0.00 50 1012.7
20200410094504 59 326 8.0 17.0 0.00 0.08 0.00 50 1012.7
20200410094404 59 324 7.0 17.0 0.00 0.08 0.00 51 1012.7
20200410094304 59 325 8.0 17.0 0.00 0.08 0.00 50 1012.7
20200410094203 58 325 8.0 17.0 0.00 0.08 0.00 50 1012.6
20200410094103 58 325 8.0 17.0 0.00 0.08 0.00 51 1012.7
20200410094006 58 326 8.0 17.0 0.00 0.08 0.00 51 1012.7
20200410093904 58 326 8.0 17.0 0.00 0.08 0.00 51 1012.7
20200410093803 58 325 8.0 17.0 0.00 0.08 0.00 50 1012.7
20200410093703 58 326 8.0 17.0 0.00 0.08 0.00 51 1012.7
20200410093604 59 327 8.0 15.0 0.00 0.08 0.00 50 1012.8
20200410093509 58 319 9.0 15.0 0.00 0.08 0.00 50 1012.6
20200410093504 59 326 8.0 15.0 0.00 0.08 0.00 50 1012.7
20200410093403 59 326 8.0 15.0 0.00 0.08 0.00 50 1012.7
20200410093303 58 325 8.0 15.0 0.00 0.08 0.00 51 1012.7
20200410093204 58 325 7.0 15.0 0.00 0.08 0.00 51 1012.7
20200410093104 59 325 7.0 15.0 0.00 0.08 0.00 51 1012.7
20200410093004 58 324 7.0 15.0 0.00 0.08 0.00 51 1012.7
20200410092904 58 324 7.0 14.0 0.00 0.08 0.00 51 1012.7
20200410092804 58 324 6.0 13.0 0.00 0.08 0.00 51 1012.7
20200410092704 58 324 6.0 13.0 0.00 0.08 0.00 53 1012.8
20200410092603 58 323 6.0 13.0 0.00 0.08 0.00 51 1012.8
20200410092507 58 330 6.0 13.0 0.00 0.08 0.00 52 1012.7
20200410092503 58 323 5.0 13.0 0.00 0.08 0.00 52 1012.7
20200410092404 58 322 5.0 11.0 0.00 0.08 0.00 54 1012.7
20200410092306 58 321 5.0 10.0 0.00 0.08 0.00 53 1012.7
20200410092204 58 320 5.0 10.0 0.00 0.08 0.00 52 1012.8
20200410092104 58 318 5.0 10.0 0.00 0.08 0.00 53 1012.8
20200410092005 58 318 4.0 9.0 0.00 0.08 0.00 53 1012.6
20200410091404 58 305 4.0 8.0 0.00 0.08 0.00 53 1012.6
20200410091303 58 304 3.0 8.0 0.00 0.08 0.00 55 1012.7
20200410091203 58 305 3.0 8.0 0.00 0.08 0.00 51 1012.7
20200410091104 58 304 4.0 8.0 0.00 0.08 0.00 52 1012.7
20200410091004 58 304 3.0 8.0 0.00 0.08 0.00 52 1012.7
20200410090904 58 303 3.0 8.0 0.00 0.08 0.00 53 1012.6
20200410090804 58 306 3.0 6.0 0.00 0.08 0.00 53 1012.6
20200410090703 58 308 3.0 6.0 0.00 0.08 0.00 54 1012.6
20200410090604 58 311 3.0 6.0 0.00 0.08 0.00 53 1012.5
20200410090504 58 314 3.0 6.0 0.00 0.08 0.00 54 1012.5
20200410090404 58 313 3.0 6.0 0.00 0.08 0.00 54 1012.7
20200410090303 58 312 3.0 6.0 0.00 0.08 0.00 52 1012.7
20200410090203 58 311 3.0 6.0 0.00 0.08 0.00 52 1012.6
20200410090104 58 311 3.0 6.0 0.00 0.08 0.00 54 1012.6
20200410090004 58 311 2.0 6.0 0.00 0.08 0.00 55 1012.5
20200410085904 58 312 2.0 6.0 0.00 0.08 0.00 54 1012.5
20200410085803 58 310 2.0 6.0 0.00 0.08 0.00 56 1012.5
20200410085703 58 307 2.0 5.0 0.00 0.09 0.00 56 1012.5
20200410085604 58 305 2.0 5.0 0.00 0.09 0.00 56 1012.5
20200410085506 58 306 2.0 4.0 0.00 0.10 0.00 55 1012.4
20200410085504 58 300 1.0 4.0 0.00 0.10 0.00 55 1012.5
20200410085404 58 297 1.0 4.0 0.00 0.10 0.00 58 1012.4
20200410085305 58 295 1.0 4.0 0.00 0.10 0.00 58 1012.5
20200410085203 58 294 1.0 3.0 0.00 0.10 0.00 58 1012.6
20200410085104 58 294 1.0 3.0 0.00 0.10 0.00 56 1012.6
20200410085004 58 293 1.0 4.0 0.00 0.10 0.00 55 1012.6
20200410084904 58 289 1.0 4.0 0.00 0.10 0.00 57 1012.6
20200410084803 58 288 1.0 4.0 0.00 0.10 0.00 57 1012.7
20200410084704 57 285 1.0 4.0 0.00 0.10 0.00 58 1012.7
20200410084604 57 285 1.0 4.0 0.00 0.10 0.00 59 1012.6
20200410084505 57 267 1.0 4.0 0.00 0.10 0.00 58 1012.5
20200410084503 58 287 1.0 4.0 0.00 0.10 0.00 58 1012.7
20200410084403 57 288 2.0 6.0 0.00 0.10 0.00 57 1012.6
20200410084304 57 292 2.0 6.0 0.00 0.10 0.00 58 1012.7
20200410084204 57 294 2.0 6.0 0.00 0.10 0.00 59 1012.8
20200410084104 57 295 2.0 6.0 0.00 0.10 0.00 58 1012.8
20200410084004 57 293 2.0 6.0 0.00 0.10 0.00 60 1012.8
20200410083903 57 294 2.0 6.0 0.00 0.10 0.00 59 1012.7
20200410083804 57 291 2.0 6.0 0.00 0.10 0.00 59 1012.7
20200410083704 57 292 2.0 6.0 0.00 0.10 0.00 57 1012.7
20200410083604 57 291 2.0 6.0 0.00 0.10 0.00 59 1012.6
20200410083507 57 290 2.0 6.0 0.00 0.10 0.00 60 1012.5
20200410083503 57 292 2.0 6.0 0.00 0.10 0.00 60 1012.7
20200410083404 57 291 1.0 5.0 0.00 0.10 0.00 62 1012.6
20200410083304 57 283 1.0 5.0 0.00 0.10 0.00 62 1012.6
20200410083203 57 277 1.0 5.0 0.00 0.10 0.00 62 1012.6
20200410083104 57 269 1.0 3.0 0.00 0.10 0.00 62 1012.6
20200410083003 57 269 1.0 3.0 0.00 0.10 0.00 62 1012.6
20200410082904 57 269 1.0 4.0 0.00 0.10 0.00 61 1012.5
20200410082804 57 270 1.0 4.0 0.00 0.10 0.00 61 1012.5
20200410082703 57 271 1.0 4.0 0.00 0.10 0.00 62 1012.4
20200410082603 58 270 1.0 4.0 0.00 0.10 0.00 62 1012.5
20200410082505 57 256 0.0 4.0 0.00 0.10 0.00 62 1012.3
20200410082404 58 270 1.0 4.0 0.00 0.10 0.00 63 1012.6
20200410082306 58 273 1.0 4.0 0.00 0.10 0.00 62 1012.5
20200410082204 58 277 1.0 4.0 0.00 0.10 0.00 60 1012.5
20200410082104 58 282 1.0 4.0 0.00 0.10 0.00 59 1012.5
20200410082006 58 284 1.0 4.0 0.00 0.10 0.00 58 1012.5
20200410081904 58 286 1.0 4.0 0.00 0.10 0.00 59 1012.5
20200410081803 58 286 1.0 3.0 0.00 0.10 0.00 60 1012.5
20200410081704 58 285 1.0 3.0 0.00 0.10 0.00 59 1012.6
20200410081604 58 286 1.0 3.0 0.00 0.10 0.00 60 1012.5
20200410081504 57 288 0.0 3.0 0.00 0.10 0.00 59 1012.3
20200410081403 58 286 1.0 3.0 0.00 0.10 0.00 58 1012.5
20200410081304 58 286 1.0 3.0 0.00 0.10 0.00 59 1012.6
20200410081204 58 286 1.0 3.0 0.00 0.10 0.00 59 1012.5
20200410081104 58 285 1.0 3.0 0.00 0.10 0.00 58 1012.5
20200410081003 58 284 1.0 3.0 0.00 0.10 0.00 58 1012.4
20200410080904 58 286 1.0 3.0 0.00 0.10 0.00 59 1012.4
20200410080806 58 286 1.0 3.0 0.00 0.10 0.00 59 1012.4
20200410080703 58 286 1.0 3.0 0.00 0.10 0.00 59 1012.5
20200410080604 58 285 1.0 3.0 0.00 0.10 0.00 59 1012.5
20200410080513 58 285 1.0 3.0 0.00 0.10 0.00 58 1012.3
20200410080510 58 284 1.0 3.0 0.00 0.10 0.00 58 1012.5
20200410080449 58 279 1.0 3.0 0.00 0.10 0.00 58 1012.5
20200410080433 58 277 1.0 3.0 0.00 0.10 0.00 58 1012.6
20200410080005 58 275 1.0 3.0 0.00 0.10 0.00 59 1012.6
20200410075904 58 271 1.0 3.0 0.00 0.10 0.00 58 1012.6
20200410075804 58 270 1.0 3.0 0.00 0.10 0.00 58 1012.6
20200410075704 58 268 1.0 3.0 0.00 0.10 0.00 58 1012.7
20200410075603 58 267 1.0 3.0 0.00 0.10 0.00 58 1012.6
20200410075506 58 269 0.0 3.0 0.00 0.10 0.00 57 1012.5
20200410075504 58 265 1.0 3.0 0.00 0.10 0.00 57 1012.6
20200410075404 58 264 1.0 3.0 0.00 0.10 0.00 58 1012.6
20200410075306 58 264 1.0 3.0 0.00 0.10 0.00 57 1012.5
20200410075203 58 264 1.0 3.0 0.00 0.10 0.00 57 1012.5
20200410075104 58 261 1.0 4.0 0.00 0.10 0.00 57 1012.5
20200410075004 58 261 1.0 4.0 0.00 0.10 0.00 56 1012.6
20200410074904 58 259 1.0 4.0 0.00 0.10 0.00 56 1012.6
20200410074803 58 258 1.0 4.0 0.00 0.10 0.00 54 1012.5
20200410074703 58 258 1.0 4.0 0.00 0.10 0.00 55 1012.6
20200410074604 58 257 1.0 4.0 0.00 0.10 0.00 55 1012.6
20200410074504 58 257 2.0 4.0 0.00 0.10 0.00 54 1012.6
20200410074403 58 257 2.0 4.0 0.00 0.10 0.00 54 1012.6
20200410074303 59 257 2.0 4.0 0.00 0.10 0.00 53 1012.6
20200410074204 58 256 2.0 4.0 0.00 0.10 0.00 54 1012.6
20200410074104 58 258 2.0 3.0 0.00 0.10 0.00 53 1012.7
20200410074004 58 258 2.0 3.0 0.00 0.10 0.00 53 1012.6
20200410073903 58 258 2.0 3.0 0.00 0.10 0.00 53 1012.6
20200410073803 58 258 2.0 5.0 0.00 0.10 0.00 54 1012.6
20200410073705 58 258 2.0 5.0 0.00 0.10 0.00 55 1012.6
20200410073604 59 258 2.0 5.0 0.00 0.10 0.00 54 1012.5
20200410073504 59 259 2.0 5.0 0.00 0.10 0.00 53 1012.5
20200410073502 58 252 1.0 5.0 0.00 0.10 0.00 53 1012.4
20200410073403 59 260 2.0 5.0 0.00 0.10 0.00 52 1012.5
20200410073303 59 266 2.0 5.0 0.00 0.10 0.00 52 1012.4
20200410073204 59 264 2.0 5.0 0.00 0.10 0.00 52 1012.3
20200410073104 59 261 1.0 5.0 0.00 0.10 0.00 53 1012.3
20200410073004 59 265 2.0 5.0 0.00 0.10 0.00 53 1012.3
20200410072903 59 267 2.0 5.0 0.00 0.10 0.00 54 1012.3
20200410072803 59 270 1.0 5.0 0.00 0.10 0.00 55 1012.3
20200410072704 59 282 1.0 5.0 0.00 0.10 0.00 56 1012.3
20200410072604 59 289 1.0 5.0 0.00 0.10 0.00 55 1012.1
20200410072503 59 296 2.0 5.0 0.00 0.10 0.00 55 1012.0
20200410072405 59 304 2.0 5.0 0.00 0.10 0.00 54 1012.1
20200410072306 59 312 2.0 5.0 0.00 0.10 0.00 56 1012.0
20200410072204 59 324 2.0 5.0 0.00 0.10 0.00 51 1012.0
20200410072105 60 330 2.0 5.0 0.00 0.10 0.00 52 1011.9
20200410072004 59 336 2.0 4.0 0.00 0.10 0.00 52 1011.9
20200410071904 59 337 2.0 4.0 0.00 0.10 0.00 53 1011.8
20200410071803 59 339 2.0 4.0 0.00 0.10 0.00 53 1011.7
20200410071704 59 342 2.0 4.0 0.00 0.10 0.00 53 1011.6
20200410071604 59 342 2.0 4.0 0.00 0.10 0.00 54 1011.5
20200410071504 59 346 1.0 4.0 0.00 0.10 0.00 53 1011.5
20200410071403 60 345 1.0 4.0 0.00 0.10 0.00 52 1011.5
20200410071304 60 349 1.0 4.0 0.00 0.10 0.00 51 1011.4
20200410071204 60 346 1.0 4.0 0.00 0.10 0.00 52 1011.3
20200410071104 60 343 2.0 5.0 0.00 0.10 0.00 51 1011.4
20200410071003 60 344 2.0 5.0 0.00 0.10 0.00 51 1011.3
20200410070904 60 344 2.0 6.0 0.00 0.10 0.00 51 1011.4
20200410070804 60 343 2.0 6.0 0.00 0.10 0.00 51 1011.2
20200410070704 60 343 2.0 6.0 0.00 0.10 0.00 51 1011.2
20200410070603 60 343 2.0 6.0 0.00 0.10 0.00 51 1011.2
20200410070503 59 15 2.0 6.0 0.00 0.10 0.00 51 1011.1
20200410070403 60 345 2.0 6.0 0.00 0.10 0.00 51 1011.1
20200410070304 60 346 2.0 6.0 0.00 0.10 0.00 50 1011.2
20200410070204 60 344 2.0 6.0 0.00 0.10 0.00 50 1011.2
20200410070103 60 347 2.0 8.0 0.00 0.10 0.00 50 1011.2
20200410070004 60 347 2.0 8.0 0.00 0.10 0.00 51 1011.2
20200410065904 60 345 2.0 8.0 0.00 0.10 0.00 52 1011.2
20200410065804 60 345 3.0 8.0 0.00 0.10 0.00 51 1011.2
20200410065703 60 343 3.0 8.0 0.00 0.10 0.00 51 1011.1
20200410065603 60 342 3.0 8.0 0.00 0.10 0.00 51 1011.1
20200410065503 60 19 2.0 8.0 0.00 0.10 0.00 51 1011.0
20200410065404 60 340 4.0 8.0 0.00 0.10 0.00 50 1011.3
20200410065304 60 338 4.0 8.0 0.00 0.10 0.00 51 1011.2
20200410065204 60 339 4.0 8.0 0.00 0.10 0.00 51 1011.3
20200410065103 60 339 4.0 8.0 0.00 0.10 0.00 51 1011.3
20200410065004 60 339 4.0 8.0 0.00 0.10 0.00 51 1011.4
20200410064904 60 340 4.0 8.0 0.00 0.10 0.00 51 1011.4
20200410064804 60 341 4.0 8.0 0.00 0.10 0.00 51 1011.3
20200410064703 60 343 4.0 8.0 0.00 0.10 0.00 51 1011.3
20200410064603 60 344 4.0 8.0 0.00 0.10 0.00 52 1011.3
20200410064504 60 344 4.0 8.0 0.00 0.10 0.00 52 1011.2
20200410064404 60 345 4.0 8.0 0.00 0.10 0.00 53 1011.2
20200410064304 60 346 3.0 8.0 0.00 0.10 0.00 53 1011.2
20200410064203 60 346 3.0 8.0 0.00 0.10 0.00 52 1011.1
20200410064104 60 345 3.0 8.0 0.00 0.10 0.00 51 1011.2
20200410064005 60 347 3.0 8.0 0.00 0.10 0.00 51 1011.3
20200410063903 60 347 3.0 8.0 0.00 0.10 0.00 51 1011.3
20200410063803 60 347 3.0 8.0 0.00 0.10 0.00 52 1011.2
20200410063703 60 347 3.0 6.0 0.00 0.10 0.00 52 1011.2
20200410063604 60 346 3.0 6.0 0.00 0.10 0.00 52 1011.2
20200410063504 60 347 3.0 6.0 0.00 0.10 0.00 52 1011.2
20200410063403 60 348 3.0 6.0 0.00 0.10 0.00 52 1011.3
20200410063303 60 350 3.0 6.0 0.00 0.10 0.00 52 1011.2
20200410063204 60 351 3.0 6.0 0.00 0.10 0.00 51 1011.3
20200410063106 60 354 3.0 6.0 0.00 0.10 0.00 52 1011.2
20200410063004 60 352 3.0 6.0 0.00 0.10 0.00 51 1011.3
20200410062903 60 353 3.0 5.0 0.00 0.10 0.00 51 1011.4
20200410062804 60 355 3.0 5.0 0.00 0.10 0.00 51 1011.3
20200410062705 60 356 3.0 5.0 0.00 0.10 0.00 50 1011.3
20200410062603 60 356 3.0 8.0 0.00 0.10 0.00 50 1011.2
20200410062503 60 5 2.0 8.0 0.00 0.10 0.00 50 1011.1
20200410062422 60 354 3.0 8.0 0.00 0.10 0.00 50 1011.3
20200410062415 61 352 3.0 8.0 0.00 0.10 0.00 50 1011.3
20200410062204 61 352 4.0 11.0 0.00 0.10 0.00 50 1011.3
20200410062104 61 351 4.0 11.0 0.00 0.10 0.00 50 1011.3
20200410062004 61 348 4.0 11.0 0.00 0.10 0.00 50 1011.3
20200410061903 61 347 4.0 11.0 0.00 0.10 0.00 50 1011.4
20200410061804 61 346 5.0 11.0 0.00 0.10 0.00 50 1011.6
20200410061704 61 346 5.0 11.0 0.00 0.10 0.00 50 1011.6
20200410061603 61 345 5.0 11.0 0.00 0.10 0.00 50 1011.6
20200410061536 60 355 4.0 11.0 0.00 0.10 0.00 50 1011.4
20200410061503 61 344 5.0 11.0 0.00 0.10 0.00 50 1011.6
20200410061404 61 344 6.0 11.0 0.00 0.10 0.00 50 1011.7
20200410061304 61 343 6.0 11.0 0.00 0.10 0.00 50 1011.7
20200410061203 61 343 6.0 11.0 0.00 0.10 0.00 50 1011.7
20200410061103 61 342 6.0 11.0 0.00 0.10 0.00 50 1011.6
20200410061003 61 343 6.0 11.0 0.00 0.10 0.00 50 1011.6
20200410060904 61 343 6.0 11.0 0.00 0.10 0.00 49 1011.8
20200410060804 61 344 6.0 11.0 0.00 0.10 0.00 49 1011.9
20200410060704 61 343 6.0 11.0 0.00 0.10 0.00 50 1011.8
20200410060603 61 343 6.0 12.0 0.00 0.10 0.00 49 1011.8
20200410060503 61 343 6.0 12.0 0.00 0.10 0.00 49 1011.8
20200410060404 61 344 6.0 12.0 0.00 0.10 0.00 49 1011.7
20200410060304 61 344 6.0 12.0 0.00 0.10 0.00 49 1011.6
20200410060203 61 344 6.0 12.0 0.00 0.10 0.00 49 1011.7
20200410060103 61 344 6.0 12.0 0.00 0.10 0.00 49 1011.6
20200410060004 61 343 6.0 12.0 0.00 0.10 0.00 49 1011.7
20200410055904 61 344 6.0 12.0 0.00 0.10 0.00 50 1011.7
20200410055804 61 345 6.0 12.0 0.00 0.10 0.00 49 1011.5
20200410055703 61 345 6.0 12.0 0.00 0.10 0.00 49 1011.4
20200410055603 61 345 6.0 11.0 0.00 0.10 0.00 49 1011.5
20200410055504 61 345 6.0 11.0 0.00 0.10 0.00 50 1011.4
20200410055404 61 345 6.0 11.0 0.00 0.10 0.00 50 1011.3
20200410055304 62 344 6.0 13.0 0.00 0.10 0.00 49 1011.4
20200410055203 62 345 7.0 13.0 0.00 0.10 0.00 49 1011.2
20200410055104 62 346 7.0 13.0 0.00 0.10 0.00 49 1011.4
20200410055004 62 346 7.0 13.0 0.00 0.10 0.00 49 1011.3
20200410054904 62 346 7.0 13.0 0.00 0.10 0.00 49 1011.3
20200410054804 62 346 7.0 13.0 0.00 0.10 0.00 49 1011.3
20200410054704 62 346 7.0 13.0 0.00 0.10 0.00 49 1011.4
20200410054604 62 346 7.0 13.0 0.00 0.10 0.00 49 1011.3
20200410054520 61 355 7.0 13.0 0.00 0.10 0.00 49 1011.1
20200410054504 62 346 7.0 13.0 0.00 0.10 0.00 49 1011.2
20200410054403 62 347 7.0 13.0 0.00 0.10 0.00 49 1011.2
20200410054304 62 348 7.0 12.0 0.00 0.10 0.00 49 1011.3
20200410054204 62 347 6.0 12.0 0.00 0.10 0.00 49 1011.2
20200410054103 62 346 6.0 12.0 0.00 0.10 0.00 50 1011.2
20200410054003 62 345 6.0 12.0 0.00 0.10 0.00 50 1011.2
20200410053903 62 346 6.0 11.0 0.00 0.10 0.00 49 1011.2
20200410053804 62 347 6.0 11.0 0.00 0.10 0.00 49 1011.1
20200410053704 62 347 5.0 10.0 0.00 0.10 0.00 50 1011.2
20200410053604 62 348 5.0 10.0 0.00 0.10 0.00 50 1011.2
20200410053503 62 349 5.0 10.0 0.00 0.10 0.00 50 1011.2
20200410053403 62 349 5.0 10.0 0.00 0.10 0.00 50 1011.2
20200410053304 62 349 5.0 10.0 0.00 0.10 0.00 50 1011.2
20200410053204 62 350 5.0 10.0 0.00 0.10 0.00 50 1011.2
20200410053104 62 350 5.0 10.0 0.00 0.10 0.00 50 1011.2
20200410053004 62 350 5.0 10.0 0.00 0.10 0.00 50 1011.3
20200410052903 62 349 5.0 10.0 0.00 0.10 0.00 50 1011.2
20200410052804 62 348 5.0 10.0 0.00 0.10 0.00 50 1011.2
20200410052704 62 348 5.0 10.0 0.00 0.10 0.00 50 1011.3
20200410052604 62 347 5.0 10.0 0.00 0.10 0.00 51 1011.2
20200410052504 62 348 5.0 10.0 0.00 0.10 0.00 50 1011.2
20200410052404 62 347 5.0 10.0 0.00 0.10 0.00 51 1011.3
20200410052304 62 347 5.0 10.0 0.00 0.10 0.00 50 1011.3
20200410052204 62 348 5.0 10.0 0.00 0.10 0.00 50 1011.2
20200410052103 62 349 5.0 9.0 0.00 0.10 0.00 50 1011.3
20200410052004 62 349 5.0 10.0 0.00 0.10 0.00 50 1011.3
20200410051904 62 350 5.0 10.0 0.00 0.10 0.00 51 1011.2
20200410051804 62 350 5.0 10.0 0.00 0.10 0.00 50 1011.2
20200410051703 62 350 5.0 10.0 0.00 0.10 0.00 49 1011.2
20200410051605 62 350 5.0 10.0 0.00 0.10 0.00 50 1011.2
20200410051518 62 360 5.0 10.0 0.00 0.10 0.00 50 1011.0
20200410051504 62 349 5.0 10.0 0.00 0.10 0.00 50 1011.1
20200410051403 62 350 6.0 10.0 0.00 0.10 0.00 50 1011.1
20200410051303 63 350 6.0 10.0 0.00 0.10 0.00 50 1011.2
20200410051203 63 349 6.0 10.0 0.00 0.10 0.00 50 1011.1
20200410051104 62 348 6.0 10.0 0.00 0.10 0.00 51 1011.3
20200410051004 62 350 6.0 10.0 0.00 0.10 0.00 51 1011.3
20200410050904 62 349 5.0 10.0 0.00 0.10 0.00 51 1011.2
20200410050803 63 349 6.0 10.0 0.00 0.10 0.00 51 1011.2
20200410050703 63 349 6.0 10.0 0.00 0.10 0.00 50 1011.3
20200410050604 63 350 6.0 10.0 0.00 0.10 0.00 51 1011.4
20200410050506 62 11 6.0 10.0 0.00 0.10 0.00 50 1011.1
20200410050403 63 349 6.0 10.0 0.00 0.10 0.00 50 1011.3
20200410050303 63 349 6.0 11.0 0.00 0.10 0.00 50 1011.3
20200410050203 63 349 6.0 11.0 0.00 0.10 0.00 50 1011.3
20200410050104 63 348 6.0 11.0 0.00 0.10 0.00 50 1011.3
20200410050004 63 347 6.0 11.0 0.00 0.10 0.00 50 1011.3
20200410045904 63 348 6.0 11.0 0.00 0.10 0.10 50 1011.3
20200410045804 63 347 6.0 11.0 0.00 0.10 0.10 51 1011.3
20200410045703 63 347 6.0 11.0 0.00 0.10 0.10 51 1011.3
20200410045603 63 347 6.0 11.0 0.00 0.10 0.10 51 1011.2
20200410045508 63 348 6.0 11.0 0.00 0.10 0.10 50 1011.0
20200410045504 63 346 6.0 11.0 0.00 0.10 0.10 50 1011.3
20200410045404 63 348 6.0 11.0 0.00 0.10 0.10 50 1011.3
20200410045303 63 348 6.0 10.0 0.00 0.10 0.10 51 1011.3
20200410045204 63 348 5.0 10.0 0.00 0.10 0.10 51 1011.3
20200410045104 63 349 5.0 10.0 0.00 0.10 0.10 52 1011.4
20200410045004 63 349 5.0 10.0 0.00 0.10 0.10 52 1011.3
20200410044903 63 350 5.0 10.0 0.00 0.10 0.10 52 1011.3
20200410044803 63 349 5.0 10.0 0.00 0.10 0.10 52 1011.3
20200410044704 63 349 5.0 10.0 0.00 0.10 0.10 52 1011.3
20200410044604 63 349 4.0 10.0 0.00 0.10 0.10 52 1011.3
20200410044512 62 340 4.0 10.0 0.00 0.10 0.10 52 1011.1
20200410044503 63 348 4.0 10.0 0.00 0.10 0.10 52 1011.3
20200410044403 63 347 4.0 10.0 0.00 0.10 0.10 53 1011.3
20200410044304 63 347 4.0 10.0 0.00 0.10 0.10 53 1011.3
20200410044204 63 347 4.0 10.0 0.00 0.10 0.10 54 1011.3
20200410044103 63 346 5.0 10.0 0.00 0.10 0.10 53 1011.4
20200410044003 63 346 5.0 10.0 0.00 0.10 0.10 53 1011.4
20200410043903 63 344 5.0 10.0 0.00 0.10 0.10 53 1011.3
20200410043803 63 345 5.0 12.0 0.00 0.10 0.10 53 1011.4
20200410043704 63 345 5.0 12.0 0.00 0.10 0.10 53 1011.3
20200410043604 63 346 5.0 12.0 0.00 0.10 0.10 53 1011.4
20200410043506 63 355 4.0 12.0 0.00 0.10 0.10 53 1011.2
20200410043503 63 345 6.0 12.0 0.00 0.10 0.10 53 1011.4
20200410043403 63 345 6.0 12.0 0.00 0.10 0.10 53 1011.5
20200410043303 63 345 6.0 12.0 0.00 0.10 0.10 52 1011.4
20200410043204 63 345 6.0 12.0 0.00 0.10 0.10 53 1011.4
20200410043103 63 346 6.0 12.0 0.00 0.10 0.10 53 1011.5
20200410043003 63 346 6.0 12.0 0.00 0.10 0.10 53 1011.4
20200410042903 63 346 6.0 12.0 0.00 0.10 0.10 53 1011.5
20200410042804 63 346 6.0 12.0 0.00 0.10 0.10 53 1011.5
20200410042704 63 347 6.0 12.0 0.00 0.10 0.10 53 1011.5
20200410042603 63 345 6.0 12.0 0.00 0.10 0.10 54 1011.5
20200410042503 63 5 5.0 12.0 0.00 0.10 0.10 54 1011.3
20200410042403 63 346 6.0 12.0 0.00 0.10 0.10 54 1011.5
20200410042304 63 346 5.0 12.0 0.00 0.10 0.10 54 1011.5
20200410042204 63 345 5.0 12.0 0.00 0.10 0.10 55 1011.5
20200410042103 63 345 5.0 11.0 0.00 0.10 0.10 55 1011.5
20200410042003 63 345 5.0 11.0 0.00 0.10 0.10 56 1011.6
20200410041903 63 345 5.0 10.0 0.00 0.10 0.10 56 1011.5
20200410041804 63 344 5.0 10.0 0.00 0.10 0.10 56 1011.4
20200410041704 63 344 5.0 10.0 0.00 0.10 0.10 57 1011.5
20200410041603 63 344 5.0 11.0 0.00 0.10 0.10 56 1011.5
20200410041517 62 330 4.0 11.0 0.00 0.10 0.10 57 1011.2
20200410041504 63 343 5.0 11.0 0.00 0.10 0.10 57 1011.5
20200410041404 63 342 5.0 11.0 0.00 0.10 0.10 56 1011.6
20200410041303 63 342 5.0 11.0 0.00 0.10 0.10 56 1011.5
20200410041203 63 342 5.0 11.0 0.00 0.10 0.10 56 1011.6
20200410041103 63 342 5.0 11.0 0.00 0.10 0.10 56 1011.6
20200410041004 63 342 6.0 11.0 0.00 0.10 0.10 56 1011.6
20200410040904 63 342 6.0 11.0 0.00 0.10 0.10 56 1011.6
20200410040803 63 343 6.0 11.0 0.00 0.10 0.10 56 1011.6
20200410040703 63 342 6.0 11.0 0.00 0.10 0.10 55 1011.6
20200410040603 63 342 6.0 10.0 0.00 0.10 0.10 56 1011.7
20200410040504 63 341 5.0 9.0 0.00 0.10 0.10 56 1011.7
20200410040502 63 355 6.0 9.0 0.00 0.10 0.10 56 1011.4
20200410040403 63 342 5.0 10.0 0.00 0.10 0.10 55 1011.7
20200410040303 63 342 5.0 10.0 0.00 0.10 0.10 56 1011.6
20200410040203 63 343 5.0 10.0 0.00 0.10 0.10 55 1011.6
20200410040104 63 343 6.0 10.0 0.00 0.10 0.10 55 1011.6
20200410040004 63 342 6.0 10.0 0.00 0.10 0.10 55 1011.5
20200410035903 63 341 6.0 10.0 0.00 0.10 0.10 56 1011.6
20200410035803 63 342 5.0 10.0 0.00 0.10 0.10 56 1011.7
20200410035704 63 342 5.0 10.0 0.00 0.10 0.10 56 1011.6
20200410035604 63 343 5.0 10.0 0.00 0.10 0.10 56 1011.6
20200410035507 63 346 6.0 10.0 0.00 0.10 0.10 56 1011.4
20200410035504 64 344 6.0 10.0 0.00 0.10 0.10 56 1011.6
20200410035403 64 345 6.0 10.0 0.00 0.10 0.10 55 1011.6
20200410035304 64 346 6.0 11.0 0.00 0.10 0.10 55 1011.6
20200410035204 64 345 6.0 11.0 0.00 0.10 0.10 55 1011.6
20200410035103 64 346 6.0 11.0 0.00 0.10 0.10 56 1011.6
20200410035003 64 345 5.0 11.0 0.00 0.10 0.10 55 1011.6
20200410034903 64 347 5.0 11.0 0.00 0.10 0.10 56 1011.6
20200410034804 64 347 6.0 11.0 0.00 0.10 0.10 56 1011.6
20200410034704 64 347 6.0 11.0 0.00 0.10 0.10 56 1011.5
20200410034604 64 347 6.0 11.0 0.00 0.10 0.10 56 1011.5
20200410034514 63 338 6.0 11.0 0.00 0.10 0.10 56 1011.3
20200410034503 64 347 5.0 11.0 0.00 0.10 0.10 56 1011.5
20200410034404 64 348 5.0 11.0 0.00 0.10 0.10 56 1011.5
20200410034304 64 348 5.0 9.0 0.00 0.10 0.10 56 1011.5
20200410034203 64 347 5.0 9.0 0.00 0.10 0.10 56 1011.5
20200410034104 64 347 5.0 9.0 0.00 0.10 0.10 56 1011.5
20200410034004 64 347 5.0 9.0 0.00 0.10 0.10 56 1011.5
20200410033904 64 347 5.0 9.0 0.00 0.10 0.10 57 1011.6
20200410033803 64 347 4.0 9.0 0.00 0.10 0.10 57 1011.6
20200410033703 64 348 4.0 9.0 0.00 0.10 0.10 57 1011.6
20200410033603 64 346 4.0 9.0 0.00 0.10 0.10 57 1011.6
20200410033507 63 337 4.0 9.0 0.00 0.10 0.10 57 1011.4
20200410033504 64 345 4.0 9.0 0.00 0.10 0.10 57 1011.5
20200410033404 64 346 4.0 9.0 0.00 0.10 0.10 57 1011.6
20200410033304 64 346 5.0 9.0 0.00 0.10 0.10 57 1011.5
20200410033203 64 346 5.0 9.0 0.00 0.10 0.10 57 1011.5
20200410033103 64 347 5.0 9.0 0.00 0.10 0.10 57 1011.5
20200410033004 64 346 5.0 9.0 0.00 0.10 0.10 57 1011.5
20200410032904 64 346 5.0 9.0 0.00 0.10 0.10 57 1011.5
20200410032804 64 346 5.0 9.0 0.00 0.10 0.10 57 1011.5
20200410032703 64 346 5.0 9.0 0.00 0.10 0.10 57 1011.5
20200410032603 64 347 5.0 9.0 0.00 0.10 0.10 56 1011.5
20200410032509 64 333 5.0 10.0 0.00 0.10 0.10 56 1011.3
20200410032504 64 347 5.0 9.0 0.00 0.10 0.10 56 1011.5
20200410032404 64 347 5.0 9.0 0.00 0.10 0.10 56 1011.6
20200410032303 64 347 5.0 10.0 0.00 0.10 0.10 56 1011.6
20200410032203 64 347 5.0 10.0 0.00 0.10 0.10 56 1011.6
20200410032104 64 348 5.0 10.0 0.00 0.10 0.10 56 1011.4
20200410032004 65 350 5.0 10.0 0.00 0.10 0.10 56 1011.5
20200410031903 65 349 5.0 10.0 0.00 0.10 0.10 56 1011.6
20200410031803 65 351 6.0 13.0 0.00 0.10 0.10 56 1011.5
20200410031704 65 350 6.0 13.0 0.00 0.10 0.10 56 1011.4
20200410031603 65 350 6.0 13.0 0.00 0.10 0.10 56 1011.5
20200410031504 64 11 5.0 13.0 0.00 0.10 0.10 56 1011.2
20200410031403 65 350 6.0 13.0 0.00 0.10 0.10 56 1011.4
20200410031303 65 350 6.0 13.0 0.00 0.10 0.10 56 1011.5
20200410031204 65 349 6.0 13.0 0.00 0.10 0.10 56 1011.5
20200410031104 65 348 6.0 13.0 0.00 0.10 0.10 56 1011.5
20200410031003 65 347 6.0 13.0 0.00 0.10 0.10 56 1011.4
20200410030903 65 346 6.0 13.0 0.00 0.10 0.10 56 1011.5
20200410030803 65 345 7.0 12.0 0.00 0.10 0.10 56 1011.5
20200410030704 65 344 6.0 12.0 0.00 0.10 0.10 57 1011.5
20200410030604 65 342 6.0 12.0 0.00 0.10 0.10 57 1011.5
20200410030503 65 5 5.0 12.0 0.00 0.10 0.10 57 1011.2
20200410030403 65 340 7.0 12.0 0.00 0.10 0.10 58 1011.5
20200410030306 65 339 7.0 12.0 0.00 0.10 0.10 57 1011.7
20200410030229 65 339 7.0 12.0 0.00 0.10 0.10 57 1011.6
20200410030155 65 338 8.0 12.0 0.00 0.10 0.10 57 1011.6
20200410030003 65 338 8.0 12.0 0.00 0.10 0.10 57 1011.5
20200410025903 65 338 8.0 12.0 0.00 0.10 0.10 58 1011.6
20200410025804 65 337 8.0 16.0 0.00 0.10 0.10 58 1011.6
20200410025704 66 338 8.0 16.0 0.00 0.10 0.10 57 1011.6
20200410025603 66 339 8.0 16.0 0.00 0.10 0.10 57 1011.5
20200410025504 65 343 8.0 16.0 0.00 0.10 0.10 57 1011.3
20200410025404 66 338 8.0 16.0 0.00 0.10 0.10 57 1011.5
20200410025303 66 338 8.0 16.0 0.00 0.10 0.10 57 1011.5
20200410025204 66 339 9.0 16.0 0.00 0.10 0.10 57 1011.5
20200410025105 66 338 9.0 16.0 0.00 0.10 0.10 56 1011.5
20200410025003 66 338 9.0 16.0 0.00 0.10 0.10 57 1011.5
20200410024904 66 336 9.0 16.0 0.00 0.10 0.10 57 1011.5
20200410024804 66 336 8.0 15.0 0.00 0.10 0.10 57 1011.5
20200410024704 66 334 8.0 15.0 0.00 0.10 0.10 57 1011.5
20200410024603 66 335 8.0 15.0 0.00 0.10 0.10 57 1011.5
20200410024504 66 334 8.0 15.0 0.00 0.10 0.10 57 1011.5
20200410024502 65 344 8.0 15.0 0.00 0.10 0.10 57 1011.3
20200410024404 66 335 8.0 15.0 0.00 0.10 0.10 57 1011.5
20200410024304 66 335 8.0 15.0 0.00 0.10 0.10 57 1011.4
20200410024203 66 334 8.0 15.0 0.00 0.10 0.10 57 1011.3
20200410024103 66 333 8.0 15.0 0.00 0.10 0.10 57 1011.3
20200410024004 66 334 8.0 15.0 0.00 0.10 0.10 58 1011.3
20200410023904 66 335 8.0 14.0 0.00 0.10 0.10 58 1011.2
20200410023803 66 334 8.0 14.0 0.00 0.10 0.10 57 1011.2
20200410023703 66 334 8.0 14.0 0.00 0.10 0.10 58 1011.3
20200410023603 66 333 8.0 16.0 0.00 0.10 0.10 57 1011.3
20200410023504 66 333 8.0 16.0 0.00 0.10 0.10 57 1011.2
20200410023404 66 333 9.0 16.0 0.00 0.10 0.10 57 1011.2
20200410023303 66 333 8.0 16.0 0.00 0.10 0.10 57 1011.2
20200410023203 66 333 8.0 16.0 0.00 0.10 0.10 57 1011.2
20200410023103 66 335 8.0 16.0 0.00 0.10 0.10 58 1011.1
20200410023004 66 335 8.0 16.0 0.00 0.10 0.10 58 1011.2
20200410022905 66 335 8.0 16.0 0.00 0.10 0.10 58 1011.2
20200410022803 66 335 8.0 16.0 0.00 0.10 0.10 58 1011.2
20200410022703 66 335 9.0 16.0 0.00 0.10 0.10 58 1011.1
20200410022604 66 335 9.0 14.0 0.00 0.10 0.10 58 1011.2
20200410022507 66 355 7.0 14.0 0.00 0.10 0.10 59 1010.9
20200410022503 66 335 9.0 15.0 0.00 0.10 0.10 59 1011.1
20200410022403 66 335 8.0 15.0 0.00 0.10 0.10 58 1011.1
20200410022303 67 335 9.0 15.0 0.00 0.10 0.10 59 1011.1
20200410022204 66 334 8.0 15.0 0.00 0.10 0.10 58 1011.1
20200410022104 66 332 8.0 15.0 0.00 0.10 0.10 59 1011.1
20200410022003 66 331 8.0 15.0 0.00 0.10 0.10 59 1011.2
20200410021903 66 331 7.0 15.0 0.00 0.10 0.10 60 1011.2
20200410021804 66 331 7.0 15.0 0.00 0.10 0.10 59 1011.2
20200410021704 66 331 6.0 15.0 0.00 0.10 0.10 60 1011.2
20200410021603 66 331 6.0 15.0 0.00 0.10 0.10 61 1011.2
20200410021532 66 336 7.0 11.0 0.00 0.10 0.10 60 1010.9
20200410021503 66 331 6.0 11.0 0.00 0.10 0.10 60 1011.1
20200410021404 66 330 6.0 11.0 0.00 0.10 0.10 61 1011.1
20200410021304 66 330 5.0 11.0 0.00 0.10 0.10 62 1011.1
20200410021203 66 330 5.0 11.0 0.00 0.10 0.10 63 1011.1
20200410021003 66 332 5.0 11.0 0.00 0.10 0.10 62 1011.2
20200410020904 66 333 5.0 11.0 0.00 0.10 0.10 62 1011.0
20200410020804 66 334 5.0 10.0 0.00 0.10 0.10 64 1011.0
20200410020703 66 334 5.0 10.0 0.00 0.10 0.10 63 1011.0
20200410020603 66 334 5.0 10.0 0.00 0.10 0.10 63 1011.0
20200410020506 65 340 5.0 10.0 0.00 0.10 0.10 64 1010.7
20200410020503 66 334 5.0 10.0 0.00 0.10 0.10 64 1010.9
20200410020403 66 334 5.0 10.0 0.00 0.10 0.10 64 1010.9
20200410020304 66 334 4.0 10.0 0.00 0.10 0.10 64 1010.9
20200410020204 65 335 4.0 10.0 0.00 0.10 0.10 65 1010.8
20200410020103 65 334 4.0 8.0 0.00 0.10 0.10 66 1010.8
20200410020004 65 333 4.0 8.0 0.00 0.10 0.10 67 1010.9
20200410015903 65 331 4.0 8.0 0.00 0.10 0.10 65 1010.9
20200410015804 65 330 3.0 8.0 0.00 0.10 0.10 65 1010.7
20200410015604 65 329 3.0 8.0 0.00 0.10 0.10 66 1010.8
20200410015521 65 331 3.0 8.0 0.00 0.10 0.10 65 1010.6
20200410015503 66 328 3.0 8.0 0.00 0.10 0.10 65 1010.9
20200410015403 66 324 3.0 8.0 0.00 0.10 0.10 65 1010.8
20200410015304 66 323 3.0 8.0 0.00 0.10 0.10 64 1010.8
20200410015204 66 323 3.0 8.0 0.00 0.10 0.10 64 1010.9
20200410015104 66 323 3.0 8.0 0.00 0.10 0.10 65 1010.9
20200410015004 66 322 3.0 7.0 0.00 0.10 0.10 65 1010.8
20200410014903 66 320 3.0 7.0 0.00 0.10 0.10 64 1010.7
20200410014803 66 319 3.0 8.0 0.00 0.10 0.10 65 1010.8
20200410014704 66 319 3.0 8.0 0.00 0.10 0.10 63 1010.7
20200410014603 66 319 3.0 8.0 0.00 0.10 0.10 63 1010.6
20200410014511 66 326 2.0 8.0 0.00 0.10 0.10 63 1010.3
20200410014503 66 322 3.0 8.0 0.00 0.10 0.10 63 1010.6
20200410014405 66 324 4.0 8.0 0.00 0.10 0.10 64 1010.6
20200410014304 66 324 4.0 8.0 0.00 0.10 0.10 64 1010.6
20200410014203 66 324 4.0 8.0 0.00 0.10 0.10 64 1010.6
20200410014103 66 322 4.0 8.0 0.00 0.10 0.10 64 1010.6
20200410014004 66 322 4.0 8.0 0.00 0.10 0.10 64 1010.6
20200410013904 66 323 4.0 8.0 0.00 0.10 0.10 64 1010.6
20200410013804 66 323 4.0 8.0 0.00 0.10 0.10 65 1010.7
20200410013705 66 324 4.0 8.0 0.00 0.10 0.10 65 1010.6
20200410013604 66 324 4.0 8.0 0.00 0.10 0.10 64 1010.7
20200410013509 66 338 4.0 10.0 0.00 0.10 0.10 65 1010.4
20200410013504 66 321 3.0 8.0 0.00 0.10 0.10 65 1010.6
20200410013404 66 321 3.0 8.0 0.00 0.10 0.10 65 1010.7
20200410013303 66 321 3.0 8.0 0.00 0.10 0.10 65 1010.7
20200410013204 66 321 3.0 8.0 0.00 0.10 0.10 66 1010.6
20200410013105 66 321 3.0 7.0 0.00 0.10 0.10 66 1010.6
20200410013004 66 320 3.0 7.0 0.00 0.10 0.10 66 1010.6
20200410012909 66 321 3.0 7.0 0.00 0.10 0.10 67 1010.4
20200410012807 66 319 3.0 7.0 0.00 0.10 0.10 67 1010.4
20200410012709 65 319 3.0 7.0 0.00 0.10 0.10 69 1010.5
20200410012609 65 319 3.0 7.0 0.00 0.10 0.10 69 1010.4
20200410012509 65 317 2.0 7.0 0.00 0.10 0.10 70 1010.1
20200410012408 65 320 2.0 7.0 0.00 0.10 0.10 69 1010.5
20200410012309 65 321 2.0 7.0 0.00 0.10 0.10 68 1010.3
20200410012206 65 320 2.0 7.0 0.00 0.10 0.10 68 1010.4
20200410012109 65 322 2.0 5.0 0.00 0.10 0.10 69 1010.4
20200410012003 65 323 2.0 5.0 0.00 0.10 0.10 70 1010.3
20200410011903 65 323 2.0 5.0 0.00 0.10 0.10 69 1010.3
20200410011803 65 325 2.0 5.0 0.00 0.10 0.10 71 1010.4
20200410011705 64 325 2.0 5.0 0.00 0.10 0.10 72 1010.2
20200410011603 64 325 2.0 4.0 0.00 0.10 0.10 71 1010.2
20200410011505 64 325 1.0 4.0 0.00 0.10 0.10 72 1010.0
20200410011404 64 326 1.0 4.0 0.00 0.10 0.10 72 1010.2
20200410011305 64 327 2.0 4.0 0.00 0.10 0.10 73 1010.0
20200410011206 64 326 1.0 3.0 0.00 0.10 0.10 73 1010.1
20200410011105 64 327 1.0 3.0 0.00 0.10 0.10 73 1010.0
20200410011004 64 327 1.0 3.0 0.00 0.10 0.10 73 1010.1
20200410010904 64 328 1.0 3.0 0.00 0.10 0.10 73 1010.0
20200410010804 64 326 1.0 3.0 0.00 0.10 0.10 73 1010.0
20200410010703 64 324 1.0 3.0 0.00 0.10 0.10 73 1010.0
20200410010603 65 323 1.0 3.0 0.00 0.10 0.10 72 1009.9
20200410010504 65 323 1.0 3.0 0.00 0.10 0.10 71 1009.8
20200410010404 65 323 1.0 3.0 0.00 0.10 0.10 70 1009.9
20200410010303 65 322 1.0 3.0 0.00 0.10 0.10 71 1010.0
20200410010204 65 322 1.0 3.0 0.00 0.10 0.10 72 1009.9
20200410010103 65 322 1.0 3.0 0.00 0.10 0.10 71 1009.9
20200410010003 65 322 1.0 4.0 0.00 0.10 0.10 71 1009.9
20200410005904 65 322 1.0 4.0 0.00 0.10 0.10 70 1009.9
20200410005804 65 323 1.0 4.0 0.00 0.10 0.10 70 1009.9
20200410005703 65 323 1.0 4.0 0.00 0.10 0.10 69 1009.9
20200410005603 65 323 1.0 4.0 0.00 0.10 0.10 69 1009.9
20200410005503 65 321 1.0 4.0 0.00 0.10 0.10 69 1009.9
20200410005404 65 320 1.0 4.0 0.00 0.10 0.10 69 1009.9
20200410005304 65 316 1.0 4.0 0.00 0.10 0.10 69 1009.8
20200410005203 65 315 1.0 4.0 0.00 0.10 0.10 68 1009.9
20200410005104 65 314 1.0 4.0 0.00 0.10 0.10 69 1009.8
20200410005003 65 310 1.0 3.0 0.00 0.10 0.10 69 1009.9
20200410004904 65 309 1.0 3.0 0.00 0.10 0.10 68 1009.9
20200410004803 66 309 1.0 3.0 0.00 0.10 0.10 68 1009.9
20200410004704 66 308 1.0 3.0 0.00 0.10 0.10 67 1009.8
20200410004605 66 307 1.0 3.0 0.00 0.10 0.10 66 1009.8
20200410004518 65 311 1.0 3.0 0.00 0.10 0.10 67 1009.6
20200410004504 66 306 1.0 3.0 0.00 0.10 0.10 67 1009.8
20200410004405 66 304 1.0 3.0 0.00 0.10 0.10 65 1009.8
20200410004304 66 305 0.0 3.0 0.00 0.10 0.10 67 1009.8
20200410004204 66 313 1.0 3.0 0.00 0.10 0.10 68 1009.7
20200410004104 66 314 1.0 3.0 0.00 0.10 0.10 66 1009.6
20200410004003 66 325 0.0 3.0 0.00 0.10 0.10 67 1009.7
20200410003903 66 330 0.0 3.0 0.00 0.10 0.10 67 1009.6
20200410003804 66 333 1.0 4.0 0.00 0.10 0.10 68 1009.5
20200410003704 66 337 1.0 4.0 0.00 0.10 0.10 67 1009.5
20200410003603 66 338 1.0 4.0 0.00 0.10 0.10 67 1009.4
20200410003504 66 338 1.0 5.0 0.00 0.10 0.10 67 1009.5
20200410003502 65 339 0.0 4.0 0.00 0.10 0.10 67 1009.1
20200410003404 66 337 2.0 6.0 0.00 0.10 0.10 67 1009.4
20200410003305 66 337 2.0 6.0 0.00 0.10 0.10 66 1009.5
20200410003206 66 337 2.0 6.0 0.00 0.10 0.10 67 1009.5
20200410003106 66 337 3.0 6.0 0.00 0.10 0.10 66 1009.5
20200410003007 66 337 3.0 6.0 0.00 0.10 0.10 65 1009.5
20200410002906 66 337 3.0 6.0 0.00 0.10 0.10 66 1009.6
20200410002805 66 337 3.0 8.0 0.00 0.10 0.10 65 1009.5
20200410002704 66 337 3.0 8.0 0.00 0.10 0.10 65 1009.5
20200410002605 66 337 4.0 8.0 0.00 0.10 0.10 65 1009.5
20200410002506 66 337 4.0 8.0 0.00 0.10 0.10 65 1009.5
20200410002406 67 337 3.0 8.0 0.00 0.10 0.10 65 1009.5
20200410002305 66 337 3.0 8.0 0.00 0.10 0.10 66 1009.5
20200410002207 67 337 3.0 8.0 0.00 0.10 0.10 65 1009.6
20200410002108 67 337 3.0 8.0 0.00 0.10 0.10 66 1009.5
20200410002008 67 336 3.0 8.0 0.00 0.10 0.10 66 1009.6
20200410001907 67 336 3.0 8.0 0.00 0.10 0.10 66 1009.5
20200410001806 67 333 3.0 6.0 0.00 0.10 0.10 65 1009.5
20200410001705 67 332 3.0 5.0 0.00 0.10 0.10 66 1009.6
20200410001609 67 331 3.0 5.0 0.00 0.10 0.10 65 1009.6
20200410001508 67 327 2.0 5.0 0.00 0.10 0.10 65 1009.3
20200410001403 67 327 2.0 5.0 0.00 0.10 0.10 65 1009.6
20200410001304 68 326 3.0 5.0 0.00 0.10 0.10 64 1009.6
20200410001204 68 323 3.0 5.0 0.00 0.10 0.10 64 1009.6
20200410001107 68 324 3.0 5.0 0.00 0.10 0.10 64 1009.7
20200410001004 68 322 3.0 5.0 0.00 0.10 0.10 65 1009.7
20200410000903 68 321 3.0 5.0 0.00 0.10 0.10 63 1009.6
20200410000807 68 321 3.0 5.0 0.00 0.10 0.10 63 1009.7
20200410000704 68 321 3.0 5.0 0.00 0.10 0.10 62 1009.8
20200410000603 69 321 3.0 5.0 0.00 0.10 0.10 61 1009.9
20200410000503 69 320 3.0 5.0 0.00 0.10 0.10 62 1009.9
20200410000403 69 321 2.0 5.0 0.00 0.10 0.10 62 1009.8
20200410000304 69 321 2.0 5.0 0.00 0.10 0.10 60 1009.9
20200410000204 69 324 2.0 5.0 0.00 0.10 0.10 61 1009.8
20200410000104 69 324 2.0 5.0 0.00 0.10 0.10 61 1009.7
20200410000004 69 324 2.0 5.0 0.00 0.10 0.10 61 1009.9
20200409235904 69 324 2.0 5.0 0.00 0.10 0.10 61 1009.7
20200409235803 69 323 2.0 5.0 0.00 0.10 0.10 61 1009.7
20200409235704 69 322 2.0 5.0 0.00 0.10 0.10 61 1009.8
20200409235604 69 322 2.0 5.0 0.00 0.10 0.10 62 1009.7
20200409235504 69 323 1.0 5.0 0.00 0.10 0.10 60 1009.4
20200409235404 70 323 2.0 5.0 0.00 0.10 0.10 60 1009.7
20200409235304 70 323 3.0 7.0 0.00 0.10 0.10 59 1009.7
20200409235204 70 321 3.0 7.0 0.00 0.10 0.10 59 1009.7
20200409235103 70 320 3.0 7.0 0.00 0.10 0.10 59 1009.8
20200409235003 70 321 3.0 7.0 0.00 0.10 0.10 60 1009.7
20200409234904 70 320 3.0 8.0 0.00 0.10 0.10 59 1009.7
20200409234804 71 318 3.0 9.0 0.00 0.10 0.10 58 1009.7
20200409234703 71 317 3.0 9.0 0.00 0.10 0.10 58 1009.8
20200409234603 71 316 3.0 9.0 0.00 0.10 0.10 58 1009.7
20200409234504 71 313 3.0 9.0 0.00 0.10 0.10 58 1009.7
20200409234502 70 340 3.0 9.0 0.00 0.10 0.10 58 1009.4
20200409234404 71 311 4.0 9.0 0.00 0.10 0.10 59 1009.8
20200409234303 71 309 4.0 9.0 0.00 0.10 0.10 58 1009.9
20200409234203 71 310 4.0 9.0 0.00 0.10 0.10 58 1009.8
20200409234104 71 308 4.0 9.0 0.00 0.10 0.10 57 1009.9
20200409234004 71 307 4.0 9.0 0.00 0.10 0.10 58 1009.9
20200409233904 71 306 4.0 9.0 0.00 0.10 0.10 58 1009.9
20200409233803 71 305 4.0 8.0 0.00 0.10 0.10 59 1009.8
20200409233703 71 302 4.0 8.0 0.00 0.10 0.10 58 1009.7
20200409233604 71 302 4.0 8.0 0.00 0.10 0.10 58 1009.8
20200409233504 71 302 4.0 8.0 0.00 0.10 0.10 57 1009.7
20200409233502 71 308 4.0 8.0 0.00 0.10 0.10 57 1009.5
20200409233404 71 302 4.0 8.0 0.00 0.10 0.10 58 1009.8
20200409233303 71 303 4.0 8.0 0.00 0.10 0.10 61 1009.8
20200409233204 71 302 4.0 8.0 0.00 0.10 0.10 59 1009.8
20200409233104 71 302 4.0 8.0 0.00 0.10 0.10 59 1009.8
20200409233004 71 301 4.0 9.0 0.00 0.10 0.10 58 1009.8
20200409232903 72 303 4.0 9.0 0.00 0.10 0.10 59 1009.7
20200409232803 72 305 4.0 9.0 0.00 0.10 0.10 57 1009.7
20200409232704 72 307 4.0 9.0 0.00 0.10 0.10 57 1009.7
20200409232604 72 309 4.0 9.0 0.00 0.10 0.10 57 1009.6
20200409232503 72 310 4.0 9.0 0.00 0.10 0.10 56 1009.7
20200409232403 72 312 3.0 9.0 0.00 0.10 0.10 56 1009.7
20200409232303 72 312 3.0 9.0 0.00 0.10 0.10 57 1009.7
20200409232204 72 310 3.0 9.0 0.00 0.10 0.10 55 1009.6
20200409232104 72 310 3.0 9.0 0.00 0.10 0.10 55 1009.6
20200409232003 72 314 3.0 7.0 0.00 0.10 0.10 55 1009.7
20200409231903 72 314 3.0 7.0 0.00 0.10 0.10 55 1009.6
20200409231804 72 315 3.0 7.0 0.00 0.10 0.10 55 1009.6
20200409231704 72 315 3.0 7.0 0.00 0.10 0.10 55 1009.6
20200409231603 72 316 2.0 6.0 0.00 0.10 0.10 55 1009.7
20200409231503 72 316 2.0 6.0 0.00 0.10 0.10 56 1009.7
20200409231403 73 316 2.0 6.0 0.00 0.10 0.10 54 1009.6
20200409231304 73 318 2.0 6.0 0.00 0.10 0.10 55 1009.6
20200409231203 73 323 2.0 6.0 0.00 0.10 0.10 55 1009.6
20200409231103 73 325 2.0 6.0 0.00 0.10 0.10 55 1009.7
20200409231003 73 325 3.0 8.0 0.00 0.10 0.10 54 1009.6
20200409230903 73 327 3.0 8.0 0.00 0.10 0.10 56 1009.6
20200409230804 73 328 3.0 8.0 0.00 0.10 0.10 56 1009.6
20200409230704 73 329 3.0 8.0 0.00 0.10 0.10 54 1009.6
20200409230603 74 330 3.0 8.0 0.00 0.10 0.10 54 1009.6
20200409230505 73 305 2.0 8.0 0.00 0.10 0.10 53 1009.2
20200409230503 74 331 3.0 8.0 0.00 0.10 0.10 53 1009.7
20200409230404 74 333 3.0 8.0 0.00 0.10 0.10 55 1009.6
20200409230303 74 332 3.0 8.0 0.00 0.10 0.10 54 1009.6
20200409230203 74 333 3.0 8.0 0.00 0.10 0.10 53 1009.6
20200409230104 74 332 4.0 8.0 0.00 0.10 0.10 54 1009.6
20200409230004 74 334 4.0 8.0 0.00 0.10 0.10 53 1009.6
20200409225906 75 334 4.0 8.0 0.00 0.10 0.10 52 1009.7
20200409225803 75 335 4.0 8.0 0.00 0.10 0.10 52 1009.7
20200409225704 75 333 4.0 8.0 0.00 0.10 0.10 52 1009.6
20200409225603 75 332 4.0 8.0 0.00 0.10 0.10 51 1009.6
20200409225406 75 331 4.0 8.0 0.00 0.10 0.10 51 1009.6
20200409225303 75 330 4.0 8.0 0.00 0.10 0.10 50 1009.7
20200409225204 76 329 4.0 8.0 0.00 0.10 0.10 53 1009.7
20200409225103 75 329 4.0 9.0 0.00 0.10 0.10 52 1009.8
20200409225004 75 329 4.0 9.0 0.00 0.10 0.10 51 1009.8
20200409224904 75 328 4.0 9.0 0.00 0.10 0.10 50 1009.9
20200409224804 75 328 4.0 9.0 0.00 0.10 0.10 50 1009.9
20200409224704 76 328 4.0 9.0 0.00 0.10 0.10 51 1009.8
20200409224605 75 328 4.0 9.0 0.00 0.10 0.10 51 1009.9
20200409224505 75 324 3.0 9.0 0.00 0.10 0.10 51 1009.6
20200409224403 75 327 4.0 9.0 0.00 0.10 0.10 52 1009.7
20200409224304 75 328 3.0 9.0 0.00 0.10 0.10 50 1009.7
20200409224204 75 329 3.0 9.0 0.00 0.10 0.10 51 1009.9
20200409224103 75 329 3.0 6.0 0.00 0.10 0.10 54 1009.8
20200409224003 75 329 3.0 6.0 0.00 0.10 0.10 51 1009.7
20200409223903 75 328 3.0 6.0 0.00 0.10 0.10 51 1009.8
20200409223804 75 328 3.0 6.0 0.00 0.10 0.10 52 1009.8
20200409223704 75 327 3.0 6.0 0.00 0.10 0.10 52 1009.7
20200409223603 75 325 3.0 6.0 0.00 0.10 0.10 52 1009.8
20200409223503 75 320 3.0 6.0 0.00 0.10 0.10 50 1009.5
20200409223403 75 323 3.0 6.0 0.00 0.10 0.10 53 1009.9
20200409223304 75 319 3.0 7.0 0.00 0.10 0.10 52 1009.8
20200409223204 75 313 3.0 7.0 0.00 0.10 0.10 50 1009.8
20200409223103 75 312 3.0 7.0 0.00 0.10 0.10 51 1009.8
20200409223003 75 310 3.0 7.0 0.00 0.10 0.10 51 1009.7
20200409222904 75 307 3.0 7.0 0.00 0.10 0.10 50 1009.7
20200409222804 75 305 3.0 7.0 0.00 0.10 0.10 50 1009.8
20200409222704 75 301 3.0 7.0 0.00 0.10 0.10 51 1009.7
20200409222603 76 298 3.0 7.0 0.00 0.10 0.10 51 1009.7
20200409222503 76 297 3.0 7.0 0.00 0.10 0.10 50 1009.6
20200409222404 76 298 3.0 7.0 0.00 0.10 0.10 49 1009.6
20200409222304 76 301 3.0 7.0 0.00 0.10 0.10 49 1009.6
20200409222203 76 303 3.0 6.0 0.00 0.10 0.10 50 1009.6
20200409222103 76 305 3.0 6.0 0.00 0.10 0.10 49 1009.6
20200409222004 76 307 3.0 6.0 0.00 0.10 0.10 49 1009.6
20200409221903 76 310 3.0 7.0 0.00 0.10 0.10 50 1009.7
20200409221803 76 311 3.0 7.0 0.00 0.10 0.10 50 1009.6
20200409221703 76 314 3.0 7.0 0.00 0.10 0.10 48 1009.5
20200409221603 76 316 3.0 7.0 0.00 0.10 0.10 48 1009.6
20200409221506 76 304 1.0 8.0 0.00 0.10 0.10 48 1009.3
20200409221504 76 316 3.0 8.0 0.00 0.10 0.10 48 1009.5
20200409221403 76 309 4.0 8.0 0.00 0.10 0.10 48 1009.5
20200409221303 76 308 4.0 8.0 0.00 0.10 0.10 49 1009.5
20200409221203 76 303 4.0 10.0 0.00 0.10 0.10 48 1009.5
20200409221104 76 297 4.0 10.0 0.00 0.10 0.10 47 1009.3
20200409221005 76 296 4.0 10.0 0.00 0.10 0.10 48 1009.3
20200409220904 76 293 4.0 10.0 0.00 0.10 0.10 47 1009.3
20200409220804 76 292 4.0 10.0 0.00 0.10 0.10 47 1009.3
20200409220703 76 292 4.0 10.0 0.00 0.10 0.10 49 1009.4
20200409220603 76 292 4.0 10.0 0.00 0.10 0.10 47 1009.4
20200409220504 75 314 3.0 10.0 0.00 0.10 0.10 48 1009.1
20200409220404 76 299 4.0 10.0 0.00 0.10 0.10 48 1009.4
20200409220304 76 301 4.0 10.0 0.00 0.10 0.10 47 1009.4
20200409220203 76 309 4.0 8.0 0.00 0.10 0.10 46 1009.5
20200409220104 76 315 4.0 8.0 0.00 0.10 0.10 45 1009.5
20200409220004 77 316 4.0 8.0 0.00 0.10 0.10 46 1009.5
20200409215905 77 317 4.0 8.0 0.00 0.10 0.10 45 1009.6
20200409215803 77 319 5.0 8.0 0.00 0.10 0.10 44 1009.5
20200409215703 77 321 4.0 8.0 0.00 0.10 0.10 46 1009.5
20200409215605 77 323 4.0 8.0 0.00 0.10 0.10 44 1009.6
20200409215504 77 313 3.0 8.0 0.00 0.11 0.10 46 1009.3
20200409215403 78 325 4.0 8.0 0.00 0.10 0.10 46 1009.7
20200409215304 78 325 4.0 8.0 0.00 0.10 0.10 46 1009.5
20200409215204 78 325 4.0 8.0 0.00 0.10 0.10 46 1009.6
20200409215104 78 324 4.0 8.0 0.00 0.10 0.10 47 1009.5
20200409215003 78 323 5.0 10.0 0.00 0.10 0.10 47 1009.6
20200409214904 77 325 5.0 10.0 0.00 0.10 0.10 46 1009.5
20200409214804 77 324 4.0 10.0 0.00 0.10 0.10 46 1009.5
20200409214705 77 323 5.0 10.0 0.00 0.10 0.10 47 1009.4
20200409214605 77 323 5.0 10.0 0.00 0.10 0.10 46 1009.5
20200409214518 77 334 4.0 10.0 0.00 0.11 0.10 45 1009.2
20200409214504 77 322 5.0 10.0 0.00 0.10 0.10 45 1009.5
20200409214405 77 321 5.0 10.0 0.00 0.10 0.10 45 1009.6
20200409214304 77 321 5.0 10.0 0.00 0.10 0.10 44 1009.6
20200409214204 77 321 5.0 10.0 0.00 0.10 0.10 45 1009.7
20200409214104 78 322 5.0 10.0 0.00 0.10 0.10 44 1009.7
20200409214004 78 325 5.0 10.0 0.00 0.10 0.10 45 1009.7
20200409213904 78 327 6.0 12.0 0.00 0.10 0.10 45 1009.8
20200409213804 78 330 6.0 12.0 0.00 0.10 0.10 47 1009.7
20200409213704 78 333 6.0 12.0 0.00 0.10 0.10 45 1009.8
20200409213603 78 334 6.0 12.0 0.00 0.10 0.10 45 1009.8
20200409213506 77 328 5.0 12.0 0.00 0.11 0.10 46 1009.6
20200409213504 78 335 6.0 12.0 0.00 0.10 0.10 46 1009.8
20200409213404 78 337 6.0 12.0 0.00 0.10 0.10 46 1009.7
20200409213304 78 337 6.0 12.0 0.00 0.10 0.10 44 1009.7
20200409213203 78 335 6.0 12.0 0.00 0.10 0.10 46 1009.8
20200409213104 78 335 6.0 12.0 0.00 0.10 0.10 45 1009.7
20200409213004 78 337 6.0 12.0 0.00 0.10 0.10 45 1009.7
20200409212903 78 334 5.0 11.0 0.00 0.10 0.10 45 1009.6
20200409212804 78 332 5.0 10.0 0.00 0.10 0.10 45 1009.6
20200409212704 78 331 4.0 10.0 0.00 0.10 0.10 46 1009.6
20200409212603 78 332 5.0 10.0 0.00 0.10 0.10 47 1009.7
20200409212506 78 333 4.0 10.0 0.00 0.11 0.10 46 1009.4
20200409212503 78 329 5.0 10.0 0.00 0.11 0.10 46 1009.6
20200409212404 78 326 5.0 10.0 0.00 0.11 0.10 48 1009.6
20200409212303 78 323 5.0 10.0 0.00 0.11 0.10 48 1009.7
20200409212203 78 323 5.0 10.0 0.00 0.11 0.10 47 1009.7
20200409212103 78 322 5.0 11.0 0.00 0.11 0.10 46 1009.7
20200409212004 78 319 5.0 11.0 0.00 0.11 0.10 45 1009.8
20200409211903 78 320 5.0 11.0 0.00 0.11 0.10 44 1009.9
20200409211803 78 321 5.0 11.0 0.00 0.11 0.10 47 1009.8
20200409211703 78 319 5.0 11.0 0.00 0.11 0.10 49 1009.8
20200409211604 78 319 5.0 11.0 0.00 0.11 0.10 48 1009.8
20200409211531 77 345 5.0 11.0 0.00 0.11 0.10 47 1009.5
20200409211504 78 322 5.0 11.0 0.00 0.11 0.10 47 1009.8
20200409211403 77 320 6.0 11.0 0.00 0.11 0.10 47 1009.9
20200409211303 78 320 6.0 11.0 0.00 0.11 0.10 47 1009.9
20200409211203 78 323 6.0 11.0 0.00 0.11 0.10 48 1009.8
20200409211104 78 324 6.0 11.0 0.00 0.11 0.10 47 1009.9
20200409211004 78 324 6.0 11.0 0.00 0.11 0.10 49 1009.9
20200409210903 78 323 6.0 12.0 0.00 0.11 0.10 50 1009.9
20200409210803 77 322 6.0 12.0 0.00 0.11 0.10 47 1010.0
20200409210703 78 321 6.0 12.0 0.00 0.11 0.10 48 1010.1
20200409210604 77 321 5.0 12.0 0.00 0.11 0.10 47 1010.2
20200409210503 77 305 7.0 12.0 0.00 0.11 0.10 47 1009.9
20200409210403 78 327 5.0 12.0 0.00 0.11 0.10 48 1010.3
20200409210303 79 330 5.0 12.0 0.00 0.11 0.10 47 1010.2
20200409210203 79 331 5.0 12.0 0.00 0.11 0.10 48 1010.3
20200409210105 78 332 5.0 12.0 0.00 0.11 0.10 48 1010.3
20200409210003 78 334 5.0 12.0 0.00 0.11 0.10 47 1010.3
20200409205903 78 337 4.0 10.0 0.00 0.11 0.10 49 1010.3
20200409205803 78 337 4.0 10.0 0.00 0.11 0.10 49 1010.2
20200409205704 78 335 5.0 11.0 0.00 0.11 0.10 49 1010.3
20200409205506 78 348 5.0 12.0 0.00 0.47 0.10 47 1010.1
20200409205503 78 333 5.0 12.0 0.00 0.12 0.10 47 1010.3
20200409205404 78 331 5.0 12.0 0.00 0.12 0.10 48 1010.2
20200409205304 78 330 5.0 12.0 0.00 0.12 0.10 48 1010.3
20200409205203 78 327 5.0 12.0 0.00 0.13 0.10 47 1010.2
20200409205103 78 327 5.0 12.0 0.00 0.13 0.10 48 1010.3
20200409205003 77 325 5.0 12.0 0.00 0.14 0.10 49 1010.3
20200409204903 77 326 6.0 12.0 0.00 0.14 0.10 47 1010.2
20200409204804 77 327 6.0 12.0 0.00 0.15 0.10 47 1010.3
20200409204704 77 327 6.0 12.0 0.00 0.15 0.10 46 1010.3
20200409204603 77 328 6.0 13.0 0.00 0.15 0.10 46 1010.4
20200409204516 77 290 5.0 13.0 0.00 0.47 0.10 45 1010.1
20200409204504 77 328 6.0 13.0 0.00 0.15 0.10 45 1010.4
20200409204404 77 325 6.0 13.0 0.00 0.15 0.10 45 1010.4
20200409204303 78 325 7.0 13.0 0.00 0.16 0.10 47 1010.4
20200409204204 78 325 7.0 14.0 0.00 0.16 0.10 45 1010.4
20200409204104 78 323 7.0 14.0 0.00 0.16 0.10 46 1010.5
20200409204003 78 322 7.0 14.0 0.00 0.16 0.10 47 1010.3
20200409203903 78 320 7.0 14.0 0.00 0.16 0.10 49 1010.4
20200409203804 78 319 7.0 14.0 0.00 0.16 0.10 49 1010.4
20200409203703 77 318 7.0 14.0 0.00 0.16 0.10 48 1010.3
20200409203603 77 318 6.0 14.0 0.00 0.17 0.10 47 1010.3
20200409203504 76 318 6.0 14.0 0.00 0.17 0.10 48 1010.3
20200409203502 76 295 8.0 14.0 0.00 0.47 0.10 48 1010.1
20200409203403 77 322 7.0 14.0 0.00 0.18 0.10 49 1010.4
20200409203303 77 320 6.0 14.0 0.00 0.19 0.10 51 1010.3
20200409203204 77 317 6.0 14.0 0.00 0.19 0.10 51 1010.3
20200409203104 77 316 6.0 14.0 0.00 0.20 0.10 53 1010.3
20200409203003 77 315 7.0 14.0 0.00 0.21 0.10 53 1010.3
20200409202908 77 313 7.0 14.0 0.00 0.22 0.10 53 1010.2
20200409202826 77 314 7.0 14.0 0.00 0.24 0.10 54 1010.3
20200409202819 77 311 7.0 14.0 0.00 0.24 0.10 54 1010.3
20200409202656 77 310 7.0 14.0 0.00 0.27 0.10 54 1010.3
20200409202503 77 308 6.0 14.0 0.00 0.29 0.10 54 1010.4
20200409202403 77 305 6.0 14.0 0.00 0.30 0.10 55 1010.4
20200409202303 77 307 6.0 14.0 0.00 0.32 0.10 54 1010.3
20200409202204 77 311 5.0 11.0 0.00 0.32 0.10 53 1010.4
20200409202103 77 312 5.0 9.0 0.00 0.33 0.10 54 1010.5
20200409202003 78 317 5.0 9.0 0.00 0.33 0.10 53 1010.4
20200409201903 77 322 5.0 10.0 0.00 0.33 0.10 54 1010.5
20200409201804 77 324 5.0 11.0 0.00 0.34 0.10 53 1010.6
20200409201704 78 329 6.0 11.0 0.00 0.35 0.10 55 1010.4
20200409201604 78 332 6.0 11.0 0.00 0.35 0.10 53 1010.5
20200409201504 78 335 6.0 13.0 0.00 0.36 0.10 53 1010.5
20200409201404 78 335 7.0 13.0 0.00 0.37 0.10 53 1010.5
20200409201304 78 337 7.0 13.0 0.00 0.38 0.10 51 1010.6
20200409201204 78 337 7.0 13.0 0.00 0.39 0.10 50 1010.7
20200409201104 78 338 7.0 13.0 0.00 0.39 0.10 51 1010.6
20200409201004 78 338 7.0 13.0 0.00 0.39 0.10 53 1010.6
20200409200903 78 338 7.0 13.0 0.00 0.40 0.10 51 1010.7
20200409200806 78 337 6.0 13.0 0.00 0.40 0.10 53 1010.7
20200409200704 78 336 6.0 13.0 0.00 0.40 0.10 53 1010.7
20200409200603 78 326 6.0 13.0 0.00 0.40 0.10 53 1010.6
20200409200503 78 325 5.0 12.0 0.00 0.45 0.10 54 1010.8
20200409200403 78 324 5.0 12.0 0.00 0.46 0.10 56 1010.8
20200409200304 77 324 5.0 12.0 0.00 0.46 0.10 57 1010.7
20200409200203 77 324 6.0 12.0 0.00 0.47 0.10 56 1010.7
20200409200104 77 324 6.0 12.0 0.00 0.47 0.10 57 1010.8
20200409200003 77 322 5.0 12.0 0.00 0.47 0.10 59 1010.8
20200409195904 77 321 6.0 12.0 0.00 0.47 0.10 57 1010.7
20200409195804 76 322 6.0 12.0 0.00 0.47 0.10 57 1010.9
20200409195704 77 320 6.0 12.0 0.00 0.47 0.10 56 1010.9
20200409195603 78 322 6.0 12.0 0.00 0.47 0.10 55 1010.9
20200409195504 77 316 6.0 12.0 0.00 0.47 0.10 54 1010.9
20200409195404 78 311 5.0 12.0 0.00 0.47 0.10 54 1010.9
20200409195303 78 305 5.0 11.0 0.00 0.47 0.10 56 1010.9
20200409195203 77 302 4.0 9.0 0.00 0.47 0.10 56 1010.9
20200409195103 78 306 5.0 10.0 0.00 0.47 0.10 53 1010.9
20200409195004 78 312 5.0 11.0 0.00 0.47 0.10 55 1011.0
20200409194904 78 316 6.0 12.0 0.00 0.47 0.10 56 1011.0
20200409194803 78 319 6.0 12.0 0.00 0.47 0.10 54 1011.0
20200409194703 78 323 6.0 12.0 0.00 0.47 0.10 57 1010.9
20200409194603 78 329 6.0 12.0 0.00 0.47 0.10 55 1011.0
20200409194504 78 335 5.0 12.0 0.00 0.47 0.10 55 1010.9
20200409194403 78 339 5.0 12.0 0.00 0.47 0.10 55 1011.1
20200409194303 78 342 5.0 12.0 0.00 0.47 0.10 55 1010.9
20200409194203 78 343 5.0 12.0 0.00 0.47 0.10 55 1010.9
20200409194104 78 346 5.0 12.0 0.00 0.47 0.10 57 1011.0
20200409194004 78 347 5.0 12.0 0.00 0.47 0.10 55 1011.1
20200409193903 78 346 5.0 11.0 0.00 0.47 0.10 57 1011.0
20200409193803 77 346 5.0 12.0 0.00 0.47 0.10 58 1011.0
20200409193704 77 345 5.0 12.0 0.00 0.47 0.10 58 1011.0
20200409193604 77 343 5.0 12.0 0.00 0.47 0.10 57 1011.0
20200409193503 76 355 3.0 12.0 0.00 0.47 0.10 57 1010.7
20200409193403 77 344 6.0 12.0 0.00 0.47 0.10 58 1011.0
20200409193303 76 343 6.0 12.0 0.00 0.47 0.10 57 1011.0
20200409193204 76 339 6.0 12.0 0.00 0.47 0.10 58 1011.1
20200409193103 77 337 6.0 12.0 0.00 0.47 0.10 58 1011.0
20200409193003 77 336 5.0 12.0 0.00 0.47 0.10 58 1011.0
20200409192903 77 340 5.0 12.0 0.00 0.47 0.10 59 1011.1
20200409192803 77 344 5.0 11.0 0.00 0.47 0.10 59 1011.1
20200409192704 77 349 5.0 11.0 0.00 0.47 0.10 59 1011.0
20200409192603 77 350 5.0 11.0 0.00 0.47 0.10 59 1011.1
20200409192503 77 353 5.0 10.0 0.00 0.47 0.10 60 1011.0
20200409192403 77 345 5.0 11.0 0.00 0.47 0.10 59 1011.1
20200409192304 77 347 5.0 12.0 0.00 0.47 0.10 59 1011.0
20200409192204 77 350 6.0 13.0 0.00 0.47 0.10 60 1011.1
20200409192104 77 348 6.0 15.0 0.00 0.47 0.10 61 1011.1
20200409192003 77 348 7.0 15.0 0.00 0.47 0.10 60 1011.0
20200409191903 77 345 7.0 15.0 0.00 0.47 0.10 59 1011.0
20200409191804 77 344 7.0 15.0 0.00 0.47 0.10 60 1011.1
20200409191704 77 339 7.0 15.0 0.00 0.47 0.10 59 1011.2
20200409191603 77 335 8.0 15.0 0.00 0.47 0.10 58 1011.3
20200409191510 76 326 8.0 15.0 0.00 0.47 0.10 59 1011.0
20200409191503 77 331 8.0 15.0 0.00 0.47 0.10 59 1011.4
20200409191404 77 331 8.0 15.0 0.00 0.47 0.10 59 1011.4
20200409191303 77 328 8.0 15.0 0.00 0.47 0.10 58 1011.3
20200409191203 77 325 8.0 15.0 0.00 0.47 0.10 59 1011.4
20200409191103 77 324 7.0 14.0 0.00 0.47 0.10 58 1011.4
20200409191004 77 322 7.0 13.0 0.00 0.47 0.10 62 1011.4
20200409190904 76 323 8.0 14.0 0.00 0.47 0.10 60 1011.5
20200409190803 76 321 8.0 14.0 0.00 0.47 0.10 59 1011.4
20200409190703 76 322 8.0 14.0 0.00 0.47 0.10 63 1011.4
20200409190604 76 326 8.0 14.0 0.00 0.47 0.10 59 1011.5
20200409190504 77 330 8.0 14.0 0.00 0.47 0.10 59 1011.5
20200409190404 76 333 8.0 14.0 0.00 0.47 0.10 58 1011.5
20200409190304 78 333 8.0 14.0 0.00 0.47 0.10 61 1011.4
20200409190203 77 333 8.0 14.0 0.00 0.47 0.10 61 1011.4
20200409190103 77 331 8.0 14.0 0.00 0.47 0.10 60 1011.4
20200409190004 77 330 7.0 14.0 0.00 0.47 0.10 62 1011.4
20200409185903 76 327 7.0 12.0 0.00 0.47 0.10 60 1011.4
20200409185803 76 325 7.0 12.0 0.00 0.47 0.10 60 1011.4
20200409185703 77 323 7.0 12.0 0.00 0.47 0.10 61 1011.5
20200409185604 77 319 7.0 12.0 0.00 0.47 0.10 61 1011.5
20200409185504 77 315 6.0 12.0 0.00 0.47 0.10 62 1011.5
20200409185403 76 312 6.0 12.0 0.00 0.47 0.10 64 1011.6
20200409185303 76 307 6.0 12.0 0.00 0.47 0.10 61 1011.6
20200409185204 76 307 6.0 12.0 0.00 0.47 0.10 62 1011.6
20200409185104 76 309 6.0 12.0 0.00 0.47 0.10 61 1011.6
20200409185004 76 311 6.0 11.0 0.00 0.47 0.10 62 1011.5
20200409184903 77 317 6.0 11.0 0.00 0.47 0.10 63 1011.4
20200409184803 77 323 6.0 11.0 0.00 0.47 0.10 62 1011.4
20200409184704 77 325 5.0 11.0 0.00 0.47 0.10 65 1011.4
20200409184642 76 326 6.0 11.0 0.00 0.47 0.10 62 1011.4
20200409184619 76 343 5.0 12.0 0.00 0.47 0.10 62 1011.1
20200409184511 76 325 6.0 12.0 0.00 0.47 0.10 62 1011.5
20200409184403 76 328 6.0 12.0 0.00 0.47 0.10 63 1011.5
20200409184304 76 330 7.0 13.0 0.00 0.47 0.10 62 1011.4
20200409184203 76 332 8.0 16.0 0.00 0.47 0.10 63 1011.5
20200409184103 76 334 8.0 16.0 0.00 0.47 0.10 61 1011.5
20200409184003 76 333 8.0 16.0 0.00 0.47 0.10 65 1011.5
20200409183904 76 330 8.0 16.0 0.00 0.47 0.10 63 1011.4
20200409183804 75 328 8.0 16.0 0.00 0.47 0.10 63 1011.5
20200409183703 75 328 9.0 16.0 0.00 0.47 0.10 61 1011.4
20200409183603 76 330 9.0 16.0 0.00 0.47 0.10 62 1011.4
20200409183503 76 316 7.0 16.0 0.00 0.47 0.10 63 1011.1
20200409183404 76 330 9.0 16.0 0.00 0.47 0.10 61 1011.5
20200409183304 76 330 9.0 16.0 0.00 0.47 0.10 62 1011.5
20200409183203 76 329 9.0 16.0 0.00 0.47 0.10 65 1011.6
20200409183103 75 327 8.0 16.0 0.00 0.47 0.10 62 1011.6
20200409183004 76 326 8.0 16.0 0.00 0.47 0.10 61 1011.5
20200409182904 76 323 8.0 16.0 0.00 0.47 0.10 61 1011.5
20200409182803 76 319 8.0 16.0 0.00 0.47 0.10 63 1011.5
20200409182703 77 316 8.0 16.0 0.00 0.47 0.10 64 1011.6
20200409182603 76 312 7.0 16.0 0.00 0.47 0.10 63 1011.6
20200409182504 76 310 7.0 16.0 0.00 0.47 0.10 64 1011.7
20200409182403 76 312 8.0 16.0 0.00 0.47 0.10 65 1011.6
20200409182303 76 309 7.0 15.0 0.00 0.47 0.10 65 1011.7
20200409182204 75 305 7.0 13.0 0.00 0.47 0.10 67 1011.6
20200409182104 75 303 7.0 13.0 0.00 0.47 0.10 65 1011.6
20200409182003 75 303 6.0 13.0 0.00 0.47 0.10 64 1011.7
20200409181903 76 304 6.0 13.0 0.00 0.47 0.10 65 1011.6
20200409181803 76 308 6.0 11.0 0.00 0.47 0.10 65 1011.7
20200409181704 76 311 6.0 12.0 0.00 0.47 0.10 65 1011.6
20200409181604 76 318 6.0 12.0 0.00 0.47 0.10 65 1011.7
20200409181504 77 322 6.0 14.0 0.00 0.47 0.10 68 1011.6
20200409181403 76 322 6.0 15.0 0.00 0.47 0.10 67 1011.6
20200409181304 75 324 6.0 15.0 0.00 0.47 0.10 67 1011.6
20200409181204 75 327 7.0 15.0 0.00 0.47 0.10 66 1011.6
20200409181103 76 333 7.0 15.0 0.00 0.47 0.10 68 1011.6
20200409181003 75 333 7.0 15.0 0.00 0.47 0.10 68 1011.6
20200409180903 74 336 7.0 15.0 0.00 0.47 0.10 67 1011.6
20200409180804 74 341 7.0 15.0 0.00 0.47 0.10 67 1011.6
20200409180704 74 346 7.0 15.0 0.00 0.47 0.10 67 1011.6
20200409180603 74 344 7.0 15.0 0.00 0.47 0.10 66 1011.6
20200409180507 76 316 7.0 15.0 0.00 0.47 0.10 64 1011.3
20200409180503 76 347 6.0 15.0 0.00 0.47 0.10 64 1011.6
20200409180403 77 351 5.0 12.0 0.00 0.47 0.10 65 1011.6
20200409180304 77 351 5.0 12.0 0.00 0.47 0.10 64 1011.7
20200409180203 77 352 5.0 12.0 0.00 0.47 0.10 66 1011.7
20200409180103 76 355 5.0 9.0 0.00 0.47 0.10 66 1011.8
20200409180003 76 352 5.0 9.0 0.00 0.47 0.10 65 1011.7
20200409175904 75 350 5.0 9.0 0.00 0.47 0.10 64 1011.8
20200409175803 75 348 5.0 10.0 0.00 0.47 0.10 65 1011.7
20200409175703 76 343 5.0 10.0 0.00 0.47 0.10 64 1011.8
20200409175603 76 341 5.0 13.0 0.00 0.47 0.10 66 1011.8
20200409175504 76 336 6.0 14.0 0.00 0.47 0.10 63 1011.7
20200409175403 76 333 6.0 14.0 0.00 0.47 0.10 65 1011.8
20200409175303 76 328 7.0 14.0 0.00 0.47 0.10 65 1011.7
20200409175203 76 327 7.0 15.0 0.00 0.47 0.10 66 1011.7
20200409175104 75 322 8.0 15.0 0.00 0.47 0.10 65 1011.8
20200409175005 75 324 8.0 15.0 0.00 0.47 0.10 65 1011.8
20200409174903 74 324 9.0 15.0 0.00 0.47 0.10 65 1011.7
20200409174803 74 321 9.0 15.0 0.00 0.47 0.10 65 1011.8
20200409174704 74 321 9.0 15.0 0.00 0.47 0.10 67 1011.9
20200409174604 74 321 8.0 15.0 0.00 0.47 0.10 66 1011.9
20200409174509 73 327 9.0 15.0 0.00 0.47 0.10 66 1011.5
20200409174503 74 321 8.0 15.0 0.00 0.47 0.10 66 1011.9
20200409174403 74 321 8.0 15.0 0.00 0.47 0.10 65 1011.8
20200409174304 74 324 8.0 15.0 0.00 0.47 0.10 65 1011.8
20200409174204 74 327 8.0 15.0 0.00 0.47 0.10 66 1011.8
20200409174103 75 331 8.0 15.0 0.00 0.47 0.10 67 1011.8
20200409174003 74 334 7.0 11.0 0.00 0.47 0.10 66 1011.7
20200409173903 75 336 7.0 11.0 0.00 0.47 0.10 66 1011.8
20200409173804 75 337 7.0 11.0 0.00 0.47 0.10 66 1011.9
20200409173704 75 334 7.0 11.0 0.00 0.47 0.10 68 1011.7
20200409173603 75 332 8.0 12.0 0.00 0.47 0.10 66 1011.9
20200409173503 75 334 8.0 14.0 0.00 0.47 0.10 67 1011.9
20200409173403 75 336 7.0 14.0 0.00 0.47 0.10 68 1011.8
20200409173304 75 334 7.0 14.0 0.00 0.47 0.10 67 1011.8
20200409173204 75 332 7.0 14.0 0.00 0.47 0.10 68 1011.8
20200409173103 74 330 7.0 14.0 0.00 0.47 0.10 67 1011.8
20200409173003 74 325 7.0 14.0 0.00 0.47 0.10 69 1011.8
20200409172903 74 322 7.0 14.0 0.00 0.47 0.10 70 1011.8
20200409172804 74 319 7.0 14.0 0.00 0.47 0.10 67 1011.8
20200409172704 75 320 7.0 14.0 0.00 0.47 0.10 68 1011.7
20200409172603 75 321 7.0 14.0 0.00 0.47 0.10 69 1011.8
20200409172508 74 327 3.0 13.0 0.00 0.47 0.10 70 1011.4
20200409172503 74 319 6.0 13.0 0.00 0.47 0.10 70 1011.8
20200409172404 74 319 7.0 13.0 0.00 0.47 0.10 71 1011.7
20200409172304 74 320 7.0 13.0 0.00 0.47 0.10 70 1011.8
20200409172203 73 320 7.0 13.0 0.00 0.47 0.10 71 1011.9
20200409172103 73 318 6.0 13.0 0.00 0.47 0.10 70 1011.9
20200409172003 73 319 6.0 13.0 0.00 0.47 0.10 69 1011.9
20200409171904 73 321 6.0 13.0 0.00 0.47 0.10 69 1011.8
20200409171804 74 328 5.0 12.0 0.00 0.47 0.10 69 1011.8
20200409171704 74 332 5.0 12.0 0.00 0.47 0.10 71 1011.8
20200409171603 74 336 6.0 12.0 0.00 0.47 0.10 69 1011.8
20200409171524 74 355 4.0 12.0 0.00 0.47 0.10 69 1011.5
20200409171503 74 341 6.0 12.0 0.00 0.47 0.10 69 1011.9
20200409171404 74 339 6.0 12.0 0.00 0.47 0.10 70 1011.9
20200409171303 74 338 6.0 12.0 0.00 0.47 0.10 71 1011.9
20200409171203 74 339 6.0 12.0 0.00 0.47 0.10 68 1012.0
20200409171103 74 344 6.0 12.0 0.00 0.47 0.10 69 1012.1
20200409171004 75 343 6.0 12.0 0.00 0.47 0.10 69 1012.1
20200409170903 75 342 6.0 12.0 0.00 0.47 0.10 70 1012.0
20200409170803 74 340 6.0 12.0 0.00 0.47 0.10 69 1012.1
20200409170703 74 341 6.0 11.0 0.00 0.47 0.10 71 1011.9
20200409170604 74 337 6.0 11.0 0.00 0.47 0.10 69 1012.0
20200409170506 73 341 5.0 11.0 0.00 0.47 0.10 68 1011.8
20200409170503 74 332 6.0 11.0 0.00 0.47 0.10 68 1012.0
20200409170403 75 331 6.0 12.0 0.00 0.47 0.10 72 1012.1
20200409170304 74 330 7.0 14.0 0.00 0.47 0.10 71 1011.9
20200409170204 74 327 7.0 14.0 0.00 0.47 0.10 69 1012.0
20200409170103 74 321 7.0 14.0 0.00 0.47 0.10 70 1012.1
20200409170003 74 320 7.0 14.0 0.00 0.47 0.10 70 1012.1
20200409165904 74 318 7.0 14.0 0.00 0.47 0.10 72 1012.1
20200409165804 73 318 7.0 14.0 0.00 0.47 0.10 71 1012.1
20200409165703 73 316 7.0 14.0 0.00 0.47 0.10 71 1012.2
20200409165603 73 314 7.0 14.0 0.00 0.47 0.10 71 1012.2
20200409165504 73 313 7.0 14.0 0.00 0.47 0.10 72 1012.1
20200409165502 72 294 8.0 14.0 0.00 0.47 0.10 72 1011.9
20200409165404 73 316 7.0 14.0 0.00 0.47 0.10 72 1012.1
20200409165303 73 318 7.0 12.0 0.00 0.47 0.10 72 1012.3
20200409165203 73 320 7.0 12.0 0.00 0.47 0.10 72 1012.3
20200409165104 74 323 7.0 12.0 0.00 0.47 0.10 73 1012.3
20200409165004 74 323 7.0 12.0 0.00 0.47 0.10 71 1012.3
20200409164903 73 325 7.0 12.0 0.00 0.47 0.10 73 1012.2
20200409164803 74 325 8.0 15.0 0.00 0.47 0.10 71 1012.3
20200409164703 74 326 8.0 15.0 0.00 0.47 0.10 72 1012.3
20200409164604 74 327 9.0 15.0 0.00 0.47 0.10 72 1012.4
20200409164507 73 325 7.0 15.0 0.00 0.47 0.10 72 1012.1
20200409164503 74 326 9.0 15.0 0.00 0.47 0.10 72 1012.5
20200409164403 74 326 9.0 15.0 0.00 0.47 0.10 74 1012.4
20200409164303 73 325 9.0 15.0 0.00 0.47 0.10 74 1012.3
20200409164204 72 325 8.0 15.0 0.00 0.47 0.10 72 1012.3
20200409164103 73 328 8.0 15.0 0.00 0.47 0.10 73 1012.3
20200409164003 73 329 8.0 15.0 0.00 0.47 0.10 72 1012.2
20200409163903 73 326 7.0 15.0 0.00 0.47 0.10 71 1012.3
20200409163804 73 325 7.0 15.0 0.00 0.47 0.10 72 1012.3
20200409163704 73 325 7.0 14.0 0.00 0.47 0.10 73 1012.3
20200409163603 74 327 7.0 14.0 0.00 0.47 0.10 72 1012.3
20200409163509 73 319 6.0 14.0 0.00 0.47 0.10 73 1012.0
20200409163504 74 328 7.0 14.0 0.00 0.47 0.10 73 1012.3
20200409163404 74 328 7.0 14.0 0.00 0.47 0.10 71 1012.4
20200409163303 74 329 7.0 14.0 0.00 0.47 0.10 74 1012.3
20200409163203 73 330 8.0 14.0 0.00 0.47 0.10 75 1012.3
20200409163104 73 329 8.0 14.0 0.00 0.47 0.10 75 1012.1
20200409163004 72 331 8.0 14.0 0.00 0.47 0.10 73 1012.2
20200409162903 72 336 8.0 14.0 0.00 0.47 0.10 75 1012.2
20200409162803 72 339 8.0 14.0 0.00 0.47 0.10 75 1012.3
20200409162703 72 337 8.0 14.0 0.00 0.47 0.10 74 1012.2
20200409162604 72 339 7.0 14.0 0.00 0.47 0.10 73 1012.2
20200409162503 72 329 8.0 16.0 0.00 0.47 0.10 72 1011.9
20200409162403 73 339 8.0 17.0 0.00 0.47 0.10 72 1012.2
20200409162304 73 338 8.0 17.0 0.00 0.47 0.10 71 1012.2
20200409162203 74 338 8.0 17.0 0.00 0.47 0.10 73 1012.3
20200409162104 74 340 8.0 17.0 0.00 0.47 0.10 73 1012.4
20200409162003 74 339 9.0 17.0 0.00 0.47 0.10 72 1012.3
20200409161903 73 340 9.0 17.0 0.00 0.47 0.10 72 1012.3
20200409161803 74 341 10.0 17.0 0.00 0.47 0.10 74 1012.3
20200409161704 73 343 10.0 17.0 0.00 0.47 0.10 74 1012.2
20200409161604 73 343 10.0 17.0 0.00 0.47 0.10 74 1012.4
20200409161524 73 325 10.0 17.0 0.00 0.47 0.10 73 1012.1
20200409161503 73 343 10.0 17.0 0.00 0.47 0.10 73 1012.4
20200409161403 73 344 9.0 17.0 0.00 0.47 0.10 74 1012.3
20200409161304 72 342 10.0 18.0 0.00 0.47 0.10 73 1012.3
20200409161203 72 340 10.0 18.0 0.00 0.47 0.10 75 1012.4
20200409161103 72 339 10.0 18.0 0.00 0.47 0.10 75 1012.3
20200409161003 72 336 9.0 18.0 0.00 0.47 0.10 75 1012.3
20200409160904 71 333 9.0 18.0 0.00 0.47 0.10 75 1012.3
20200409160804 71 330 8.0 18.0 0.00 0.47 0.10 76 1012.3
20200409160703 71 328 8.0 18.0 0.00 0.47 0.10 76 1012.3
20200409160603 71 324 8.0 18.0 0.00 0.47 0.10 77 1012.3
20200409160504 70 323 9.0 18.0 0.00 0.47 0.10 77 1012.4
20200409160404 71 321 8.0 18.0 0.00 0.47 0.10 76 1012.3
20200409160303 71 321 8.0 18.0 0.00 0.47 0.10 75 1012.5
20200409160203 72 321 8.0 17.0 0.00 0.47 0.10 76 1012.4
20200409160104 72 321 8.0 17.0 0.00 0.47 0.10 77 1012.5
20200409160004 71 322 8.0 17.0 0.00 0.47 0.10 77 1012.3
20200409155904 71 326 8.0 17.0 0.00 0.47 0.10 77 1012.4
20200409155804 71 326 8.0 17.0 0.00 0.47 0.10 77 1012.6
20200409155706 71 327 9.0 17.0 0.00 0.47 0.10 76 1012.6
20200409155603 71 330 8.0 17.0 0.00 0.47 0.10 75 1012.5
20200409155503 72 334 8.0 17.0 0.00 0.47 0.10 76 1012.5
20200409155403 72 336 9.0 17.0 0.00 0.47 0.10 78 1012.4
20200409155304 71 336 9.0 17.0 0.00 0.47 0.10 77 1012.5
20200409155204 71 333 8.0 13.0 0.00 0.47 0.10 78 1012.4
20200409155103 70 332 9.0 13.0 0.00 0.47 0.10 77 1012.4
20200409155003 70 331 9.0 13.0 0.00 0.47 0.10 77 1012.4
20200409154903 70 328 8.0 13.0 0.00 0.47 0.10 76 1012.4
20200409154804 71 329 8.0 13.0 0.00 0.47 0.10 77 1012.3
20200409154703 71 328 8.0 13.0 0.00 0.47 0.10 77 1012.4
20200409154603 71 327 8.0 13.0 0.00 0.47 0.10 76 1012.5
20200409154503 72 326 8.0 13.0 0.00 0.47 0.10 77 1012.3
20200409154403 71 325 8.0 13.0 0.00 0.47 0.10 77 1012.4
20200409154304 71 326 7.0 13.0 0.00 0.47 0.10 77 1012.4
20200409154203 72 328 7.0 13.0 0.00 0.47 0.10 78 1012.3
20200409154103 71 328 8.0 13.0 0.00 0.47 0.10 77 1012.4
20200409154003 71 327 8.0 13.0 0.00 0.47 0.10 78 1012.4
20200409153904 71 328 8.0 13.0 0.00 0.47 0.10 78 1012.3
20200409153803 71 325 8.0 13.0 0.00 0.47 0.10 78 1012.3
20200409153703 71 323 8.0 13.0 0.00 0.47 0.10 78 1012.4
20200409153624 71 323 8.0 13.0 0.00 0.47 0.10 79 1012.3
20200409153506 70 333 8.0 15.0 0.00 0.47 0.10 78 1012.1
20200409153503 71 322 9.0 13.0 0.00 0.47 0.10 78 1012.4
20200409153404 71 321 8.0 13.0 0.00 0.47 0.10 78 1012.3
20200409153304 71 320 8.0 13.0 0.00 0.47 0.10 80 1012.4
20200409153203 70 322 8.0 16.0 0.00 0.47 0.10 80 1012.3
20200409153103 70 324 8.0 18.0 0.00 0.47 0.10 79 1012.3
20200409153003 70 322 8.0 18.0 0.00 0.47 0.10 80 1012.3
20200409152904 70 322 8.0 18.0 0.00 0.47 0.10 80 1012.4
20200409152803 70 324 8.0 18.0 0.00 0.47 0.10 80 1012.3
20200409152703 70 326 9.0 18.0 0.00 0.47 0.10 81 1012.2
20200409152603 70 327 9.0 19.0 0.00 0.47 0.10 80 1012.3
20200409152504 70 325 9.0 19.0 0.00 0.47 0.10 82 1012.4
20200409152502 69 336 5.0 19.0 0.00 0.47 0.10 82 1012.0
20200409152404 69 327 10.0 19.0 0.00 0.47 0.10 82 1012.3
20200409152303 69 329 10.0 19.0 0.00 0.47 0.10 82 1012.3
20200409152203 69 327 10.0 19.0 0.00 0.47 0.10 81 1012.4
20200409152103 69 326 9.0 19.0 0.00 0.47 0.10 82 1012.2
20200409152004 69 329 9.0 19.0 0.00 0.47 0.10 81 1012.3
20200409151904 69 329 9.0 19.0 0.00 0.47 0.10 81 1012.2
20200409151803 70 328 9.0 19.0 0.00 0.47 0.10 80 1012.2
20200409151703 70 327 9.0 19.0 0.00 0.47 0.10 81 1012.2
20200409151603 70 325 9.0 17.0 0.00 0.47 0.10 80 1012.1
20200409151505 70 326 11.0 17.0 0.00 0.47 0.10 80 1011.8
20200409151403 71 321 9.0 17.0 0.00 0.47 0.10 81 1012.2
20200409151303 71 319 9.0 17.0 0.00 0.47 0.10 81 1012.1
20200409151204 71 320 9.0 17.0 0.00 0.47 0.10 82 1012.1
20200409151103 70 322 9.0 17.0 0.00 0.47 0.10 82 1012.1
20200409151003 70 320 10.0 17.0 0.00 0.47 0.10 81 1011.9
20200409150903 70 322 10.0 17.0 0.00 0.47 0.10 81 1011.9
20200409150804 70 322 10.0 18.0 0.00 0.47 0.10 81 1012.0
20200409150703 70 320 10.0 18.0 0.00 0.47 0.10 81 1011.9
20200409150603 69 319 10.0 18.0 0.00 0.47 0.10 81 1011.9
20200409150504 69 317 10.0 18.0 0.00 0.47 0.10 80 1011.9
20200409150502 69 355 11.0 18.0 0.00 0.47 0.10 80 1011.6
20200409150403 70 318 10.0 18.0 0.00 0.47 0.10 82 1011.8
20200409150303 70 316 9.0 18.0 0.00 0.47 0.10 81 1011.7
20200409150204 69 315 9.0 18.0 0.00 0.47 0.10 81 1011.7
20200409150103 69 311 9.0 18.0 0.00 0.47 0.10 82 1011.8
20200409150004 69 311 9.0 18.0 0.00 0.47 0.10 82 1011.6
20200409145903 69 305 8.0 18.0 0.00 0.47 0.10 81 1011.6
20200409145803 69 303 8.0 15.0 0.00 0.47 0.10 81 1011.5
20200409145704 69 307 8.0 15.0 0.00 0.47 0.10 81 1011.6
20200409145604 69 308 8.0 18.0 0.00 0.47 0.10 81 1011.6
20200409145515 69 326 6.0 20.0 0.00 0.47 0.10 82 1011.3
20200409145503 70 309 8.0 18.0 0.00 0.47 0.10 82 1011.5
20200409145403 69 308 8.0 18.0 0.00 0.47 0.10 82 1011.6
20200409145304 69 310 9.0 18.0 0.00 0.47 0.10 82 1011.6
20200409145204 69 310 9.0 18.0 0.00 0.47 0.10 83 1011.6
20200409145103 69 311 10.0 19.0 0.00 0.47 0.10 82 1011.5
20200409145003 69 311 10.0 19.0 0.00 0.47 0.10 82 1011.4
20200409144904 69 312 10.0 19.0 0.00 0.47 0.10 82 1011.4
20200409144804 69 313 10.0 19.0 0.00 0.47 0.10 83 1011.4
20200409144703 68 312 10.0 19.0 0.00 0.47 0.10 82 1011.4
20200409144603 69 313 10.0 19.0 0.00 0.47 0.10 82 1011.3
20200409144514 68 323 8.0 19.0 0.00 0.47 0.10 83 1011.0
20200409144503 69 314 10.0 19.0 0.00 0.47 0.10 83 1011.4
20200409144404 69 314 10.0 19.0 0.00 0.47 0.10 83 1011.3
20200409144304 69 315 10.0 19.0 0.00 0.47 0.10 83 1011.3
20200409144203 69 316 9.0 19.0 0.00 0.47 0.10 83 1011.2
20200409144103 69 315 9.0 18.0 0.00 0.47 0.10 83 1011.4
20200409144004 69 313 9.0 18.0 0.00 0.47 0.10 83 1011.2
20200409143903 69 313 9.0 18.0 0.00 0.47 0.10 83 1011.2
20200409143803 69 313 9.0 18.0 0.00 0.47 0.10 83 1011.3
20200409143707 69 312 8.0 18.0 0.00 0.47 0.10 84 1011.4
20200409143616 68 313 8.0 18.0 0.00 0.47 0.10 83 1011.3
20200409143504 69 312 8.0 15.0 0.00 0.47 0.10 83 1011.3
20200409143502 68 317 8.0 15.0 0.00 0.47 0.10 83 1011.0
20200409143403 69 315 8.0 15.0 0.00 0.47 0.10 84 1011.3
20200409143303 69 313 8.0 15.0 0.00 0.47 0.10 84 1011.2
20200409143203 69 311 8.0 15.0 0.00 0.47 0.10 84 1011.1
20200409143104 68 311 8.0 15.0 0.00 0.47 0.10 83 1011.2
20200409143003 69 311 8.0 15.0 0.00 0.47 0.10 84 1011.2
20200409142903 68 310 8.0 15.0 0.00 0.47 0.10 84 1011.1
20200409142803 69 309 8.0 15.0 0.00 0.47 0.10 83 1011.1
20200409142703 69 308 8.0 15.0 0.00 0.47 0.10 84 1011.1
20200409142604 69 307 8.0 16.0 0.00 0.47 0.10 85 1011.2
20200409142505 68 325 8.0 16.0 0.00 0.47 0.10 85 1010.9
20200409142503 68 307 9.0 20.0 0.00 0.47 0.10 85 1011.1
20200409142403 68 304 9.0 20.0 0.00 0.47 0.10 84 1011.2
20200409142303 68 304 8.0 20.0 0.00 0.47 0.10 84 1011.1
20200409142204 68 302 8.0 20.0 0.00 0.47 0.10 84 1011.2
20200409142103 68 301 8.0 20.0 0.00 0.47 0.10 84 1011.2
20200409142003 68 302 8.0 20.0 0.00 0.47 0.10 84 1011.4
20200409141903 68 302 8.0 20.0 0.00 0.47 0.10 84 1011.3
20200409141803 68 302 8.0 20.0 0.00 0.47 0.10 84 1011.3
20200409141704 68 300 8.0 20.0 0.00 0.47 0.10 83 1011.3
20200409141603 68 300 8.0 20.0 0.00 0.47 0.10 85 1011.3
20200409141503 68 239 6.0 15.0 0.00 0.47 0.10 85 1011.0
20200409141403 68 300 7.0 15.0 0.00 0.47 0.10 85 1011.2
20200409141303 68 300 7.0 15.0 0.00 0.47 0.10 85 1011.2
20200409141204 68 301 7.0 15.0 0.00 0.47 0.10 84 1011.1
20200409141103 68 303 7.0 15.0 0.00 0.47 0.10 85 1011.2
20200409141003 68 303 6.0 15.0 0.00 0.47 0.10 86 1011.2
20200409140903 68 304 6.0 15.0 0.00 0.47 0.10 85 1011.2
20200409140803 68 302 6.0 15.0 0.00 0.47 0.10 85 1011.2
20200409140704 68 302 6.0 15.0 0.00 0.47 0.10 86 1011.2
20200409140604 68 301 5.0 11.0 0.00 0.47 0.10 87 1011.2
20200409140507 67 296 6.0 11.0 0.00 0.47 0.10 87 1010.9
20200409140504 68 300 5.0 11.0 0.00 0.47 0.10 87 1011.2
20200409140403 68 299 5.0 11.0 0.00 0.47 0.10 88 1011.2
20200409140304 68 298 4.0 11.0 0.00 0.47 0.10 88 1011.2
20200409140204 67 298 5.0 11.0 0.00 0.47 0.10 88 1011.2
20200409140103 67 298 5.0 11.0 0.00 0.47 0.10 88 1011.3
20200409140003 67 299 5.0 11.0 0.00 0.47 0.10 88 1011.1
20200409135904 67 298 5.0 11.0 0.00 0.47 0.10 89 1011.2
20200409135803 67 298 4.0 11.0 0.00 0.47 0.10 89 1011.3
20200409135703 67 297 4.0 9.0 0.00 0.47 0.10 90 1011.3
20200409135603 67 297 4.0 9.0 0.00 0.47 0.10 89 1011.3
20200409135504 67 305 4.0 9.0 0.00 0.47 0.10 89 1011.0
20200409135404 67 298 4.0 9.0 0.00 0.47 0.10 90 1011.3
20200409135303 67 298 4.0 9.0 0.00 0.47 0.10 90 1011.3
20200409135203 67 299 4.0 9.0 0.00 0.47 0.10 90 1011.2
20200409135103 67 301 3.0 9.0 0.00 0.47 0.10 90 1011.2
20200409135003 67 303 3.0 9.0 0.00 0.47 0.10 90 1011.2
20200409134904 67 303 3.0 9.0 0.00 0.47 0.10 91 1011.1
20200409134803 67 307 3.0 7.0 0.00 0.47 0.10 91 1011.2
20200409134703 67 308 3.0 7.0 0.00 0.47 0.10 91 1011.2
20200409134603 67 309 3.0 7.0 0.00 0.47 0.10 91 1011.1
20200409134504 67 307 3.0 7.0 0.00 0.47 0.10 91 1011.2
20200409134403 67 309 3.0 7.0 0.00 0.47 0.10 92 1011.1
20200409134303 67 310 3.0 7.0 0.00 0.47 0.10 92 1011.2
20200409134203 66 308 3.0 7.0 0.00 0.47 0.10 92 1011.1
20200409134103 66 307 3.0 7.0 0.00 0.47 0.10 92 1011.0
20200409134004 66 306 3.0 7.0 0.00 0.47 0.10 91 1011.0
20200409133904 66 305 3.0 7.0 0.00 0.47 0.10 92 1011.1
20200409133803 66 306 3.0 7.0 0.00 0.47 0.10 92 1011.0
20200409133703 66 306 3.0 7.0 0.00 0.47 0.10 92 1011.0
20200409133603 66 306 3.0 7.0 0.00 0.47 0.10 93 1011.0
20200409133504 66 306 3.0 7.0 0.00 0.47 0.10 93 1011.0
20200409133404 66 307 3.0 7.0 0.00 0.47 0.10 93 1011.0
20200409133303 66 301 3.0 7.0 0.00 0.47 0.10 93 1011.0
20200409133203 66 299 3.0 7.0 0.00 0.47 0.10 93 1011.0
20200409133103 65 297 3.0 7.0 0.00 0.47 0.10 93 1011.0
20200409133004 65 293 3.0 9.0 0.00 0.47 0.10 93 1011.0
20200409132904 65 289 3.0 9.0 0.00 0.47 0.10 94 1011.0
20200409132803 64 282 3.0 9.0 0.00 0.47 0.10 93 1011.0
20200409132703 64 279 3.0 9.0 0.00 0.47 0.10 94 1011.0
20200409132603 64 279 4.0 9.0 0.00 0.47 0.10 94 1011.0
20200409132506 64 316 3.0 9.0 0.00 0.47 0.10 94 1010.7
20200409132504 64 281 4.0 9.0 0.00 0.47 0.10 94 1011.0
20200409132404 64 280 4.0 9.0 0.00 0.47 0.10 94 1010.9
20200409132303 64 282 4.0 9.0 0.00 0.47 0.10 94 1011.0
20200409132203 64 282 4.0 9.0 0.00 0.47 0.10 94 1010.9
20200409132104 64 283 3.0 9.0 0.00 0.47 0.10 94 1011.0
20200409132003 64 284 3.0 9.0 0.01 0.47 0.10 94 1010.9
20200409131903 64 287 3.0 8.0 0.01 0.47 0.10 94 1010.7
20200409131803 64 294 2.0 8.0 0.01 0.47 0.10 94 1010.7
20200409131703 64 296 2.0 7.0 0.01 0.47 0.10 94 1010.7
20200409131604 64 298 2.0 5.0 0.01 0.47 0.10 94 1010.6
20200409131503 64 295 2.0 5.0 0.02 0.47 0.10 94 1010.6
20200409131403 64 293 2.0 5.0 0.02 0.47 0.10 94 1010.5
20200409131303 64 292 2.0 5.0 0.02 0.47 0.10 94 1010.4
20200409131204 64 290 2.0 5.0 0.02 0.47 0.10 94 1010.4
20200409131103 64 287 2.0 5.0 0.02 0.47 0.10 94 1010.3
20200409131003 64 281 2.0 5.0 0.03 0.47 0.10 94 1010.3
20200409130903 64 274 2.0 5.0 0.03 0.47 0.10 94 1010.2
20200409130804 64 269 2.0 5.0 0.03 0.47 0.10 94 1010.3
20200409130703 64 263 2.0 5.0 0.03 0.47 0.10 94 1010.2
20200409130603 63 254 2.0 4.0 0.03 0.47 0.10 94 1010.2
20200409130503 63 246 2.0 4.0 0.03 0.47 0.10 94 1010.2
20200409130404 63 239 1.0 4.0 0.03 0.47 0.10 94 1010.2
20200409130304 63 235 1.0 4.0 0.04 0.47 0.10 94 1010.2
20200409130203 63 231 1.0 4.0 0.05 0.47 0.10 94 1010.1
20200409130103 63 226 1.0 4.0 0.05 0.47 0.10 94 1010.1
20200409130004 63 220 1.0 4.0 0.05 0.47 0.10 94 1010.0
20200409125903 63 207 1.0 2.0 0.06 0.47 0.10 94 1010.0
20200409125803 63 204 1.0 2.0 0.07 0.47 0.10 94 1009.9
20200409125703 63 199 1.0 3.0 0.07 0.47 0.10 94 1009.9
20200409125603 63 200 1.0 4.0 0.07 0.47 0.10 94 1009.9
20200409125504 63 192 1.0 5.0 0.07 0.47 0.10 94 1009.8
20200409125502 62 208 0.0 4.0 0.07 0.47 0.10 94 1009.6
20200409125403 63 186 1.0 5.0 0.08 0.47 0.10 94 1009.7
20200409125303 63 187 2.0 5.0 0.08 0.47 0.10 94 1009.8
20200409125231 63 187 2.0 5.0 0.08 0.47 0.10 94 1009.7
20200409125104 63 182 2.0 5.0 0.08 0.47 0.10 94 1009.8
20200409125004 63 177 2.0 5.0 0.08 0.47 0.10 94 1009.7
20200409124904 63 176 2.0 5.0 0.08 0.47 0.10 94 1009.5
20200409124803 63 175 2.0 5.0 0.08 0.47 0.10 94 1009.4
20200409124703 62 171 2.0 5.0 0.08 0.47 0.10 94 1009.4
20200409124604 62 166 2.0 5.0 0.08 0.47 0.10 94 1009.4
20200409124503 62 163 2.0 5.0 0.08 0.47 0.10 94 1009.3
20200409124403 62 161 2.0 9.0 0.08 0.47 0.10 94 1009.5
20200409124306 62 156 3.0 9.0 0.08 0.47 0.10 94 1009.5
20200409124204 62 147 3.0 9.0 0.08 0.47 0.10 94 1009.2
20200409124103 62 145 3.0 9.0 0.08 0.47 0.10 94 1009.3
20200409124004 62 145 3.0 9.0 0.08 0.47 0.10 94 1009.3
20200409123903 62 146 3.0 9.0 0.08 0.47 0.10 94 1009.4
20200409123803 62 147 3.0 9.0 0.08 0.47 0.10 94 1009.4
20200409123704 62 148 3.0 9.0 0.08 0.47 0.10 94 1009.3
20200409123603 62 146 3.0 9.0 0.08 0.47 0.10 94 1009.3
20200409123503 62 184 4.0 9.0 0.08 0.47 0.10 94 1009.0
20200409123404 63 136 3.0 6.0 0.08 0.47 0.10 94 1009.4
20200409123304 62 129 2.0 5.0 0.08 0.47 0.10 94 1009.7
20200409123204 62 127 2.0 4.0 0.08 0.47 0.10 94 1010.1
20200409123103 62 125 2.0 4.0 0.08 0.47 0.10 94 1010.1
20200409123003 62 116 2.0 4.0 0.08 0.47 0.10 94 1010.4
20200409122904 63 104 2.0 4.0 0.08 0.47 0.10 94 1010.4
20200409122803 63 90 2.0 4.0 0.08 0.47 0.10 94 1010.3
20200409122703 63 71 2.0 4.0 0.08 0.47 0.10 94 1010.4
20200409122603 63 52 2.0 4.0 0.08 0.47 0.10 94 1010.4
20200409122516 62 108 2.0 4.0 0.08 0.47 0.10 94 1010.1
20200409122504 63 31 2.0 5.0 0.08 0.47 0.10 94 1010.6
20200409122404 63 1 3.0 9.0 0.08 0.47 0.10 94 1010.7
20200409122303 63 344 3.0 9.0 0.08 0.47 0.10 94 1010.7
20200409122203 63 335 3.0 9.0 0.08 0.47 0.10 94 1010.8
20200409122104 63 330 4.0 9.0 0.08 0.47 0.10 94 1011.0
20200409122004 63 320 4.0 10.0 0.07 0.46 0.09 93 1011.3
20200409121904 63 316 4.0 10.0 0.07 0.46 0.09 93 1011.5
20200409121803 63 313 4.0 11.0 0.07 0.46 0.09 93 1011.5
20200409121703 63 309 4.0 11.0 0.07 0.46 0.09 93 1011.6
20200409121603 63 306 4.0 11.0 0.07 0.46 0.09 93 1011.7
20200409121510 63 307 4.0 11.0 0.06 0.45 0.08 93 1011.4
20200409121504 63 299 4.0 11.0 0.06 0.45 0.08 93 1011.8
20200409121404 63 297 5.0 13.0 0.06 0.45 0.08 93 1011.7
20200409121303 63 293 5.0 14.0 0.06 0.45 0.08 93 1011.9
20200409121203 63 290 6.0 14.0 0.06 0.45 0.08 93 1011.9
20200409121104 63 290 6.0 14.0 0.06 0.45 0.08 93 1012.1
20200409121003 63 290 6.0 21.0 0.05 0.44 0.07 93 1012.1
20200409120903 63 288 7.0 21.0 0.05 0.44 0.07 93 1012.2
20200409120803 63 286 6.0 21.0 0.05 0.44 0.07 93 1012.2
20200409120703 64 286 7.0 21.0 0.05 0.44 0.07 93 1012.2
20200409120604 64 288 7.0 21.0 0.05 0.44 0.07 93 1012.3
20200409120504 64 289 7.0 21.0 0.05 0.44 0.07 93 1012.2
20200409120403 64 288 7.0 21.0 0.04 0.43 0.06 94 1012.5
20200409120304 64 291 7.0 21.0 0.04 0.43 0.06 94 1012.6
20200409120203 64 291 6.0 21.0 0.03 0.42 0.05 94 1012.7
20200409120103 64 290 6.0 21.0 0.03 0.42 0.05 94 1012.8
20200409120025 64 290 5.0 15.0 0.02 0.41 0.04 94 1012.8
20200409115903 64 292 4.0 13.0 0.02 0.41 0.04 94 1012.6
20200409115803 64 295 4.0 13.0 0.01 0.40 0.03 94 1012.9
20200409115704 64 298 4.0 11.0 0.01 0.40 0.03 94 1012.6
20200409115603 64 299 3.0 10.0 0.01 0.40 0.03 94 1012.4
20200409115504 64 304 3.0 10.0 0.00 0.39 0.02 94 1012.3
20200409115404 64 307 2.0 10.0 0.00 0.39 0.02 94 1011.9
20200409115305 64 316 2.0 4.0 0.00 0.39 0.02 94 1011.6
20200409115203 64 320 1.0 4.0 0.00 0.39 0.02 94 1011.3
20200409115104 64 323 1.0 3.0 0.00 0.39 0.02 94 1011.1
20200409115003 64 323 1.0 3.0 0.00 0.39 0.02 94 1011.0
20200409114903 64 323 1.0 3.0 0.00 0.39 0.02 94 1010.9
20200409114803 64 323 1.0 3.0 0.00 0.39 0.02 94 1011.1
20200409114703 64 324 1.0 3.0 0.00 0.39 0.02 94 1011.1
20200409114604 64 328 1.0 3.0 0.00 0.39 0.02 94 1011.0
20200409114504 64 336 1.0 3.0 0.00 0.39 0.02 94 1010.9
20200409114502 64 315 1.0 3.0 0.00 0.39 0.02 94 1010.7
20200409114403 64 339 1.0 3.0 0.00 0.39 0.02 94 1010.9
20200409114303 64 334 1.0 3.0 0.00 0.39 0.02 94 1010.7
20200409114205 64 332 1.0 3.0 0.00 0.39 0.02 94 1010.7
20200409114104 64 328 1.0 3.0 0.00 0.39 0.02 94 1010.7
20200409114004 64 327 1.0 3.0 0.00 0.39 0.02 94 1010.8
20200409113903 64 331 1.0 4.0 0.00 0.39 0.02 94 1010.7
20200409113803 64 332 1.0 4.0 0.00 0.39 0.02 94 1011.0
20200409113704 64 334 2.0 4.0 0.00 0.39 0.02 94 1010.9
20200409113603 64 336 2.0 4.0 0.00 0.39 0.02 94 1011.0
20200409113509 64 329 1.0 4.0 0.00 0.39 0.02 94 1010.7
20200409113503 64 337 2.0 4.0 0.00 0.39 0.02 94 1011.0
20200409113403 64 338 2.0 4.0 0.00 0.39 0.02 94 1010.8
20200409113304 64 339 2.0 4.0 0.00 0.39 0.02 94 1010.9
20200409113204 64 337 2.0 4.0 0.00 0.39 0.02 94 1010.8
20200409113103 64 335 2.0 4.0 0.00 0.39 0.02 94 1010.7
20200409113015 64 333 2.0 4.0 0.00 0.39 0.02 94 1010.7
20200409112903 64 329 2.0 4.0 0.00 0.39 0.02 94 1010.6
20200409112803 64 329 2.0 4.0 0.00 0.39 0.02 94 1010.5
20200409112703 64 328 2.0 4.0 0.00 0.39 0.02 94 1010.5
20200409112603 64 326 2.0 4.0 0.00 0.39 0.02 94 1010.4
20200409112509 64 360 1.0 4.0 0.00 0.39 0.02 94 1010.1
20200409112504 64 325 3.0 4.0 0.00 0.39 0.02 94 1010.5
20200409112403 64 324 3.0 4.0 0.00 0.39 0.02 94 1010.5
20200409112305 64 327 3.0 5.0 0.00 0.39 0.02 94 1010.5
20200409112203 64 329 3.0 5.0 0.00 0.39 0.02 94 1010.5
20200409112104 64 331 3.0 5.0 0.00 0.39 0.02 94 1010.4
20200409112004 64 333 3.0 5.0 0.00 0.39 0.02 94 1010.3
20200409111903 64 332 3.0 5.0 0.00 0.39 0.02 94 1010.2
20200409111803 64 332 3.0 5.0 0.00 0.39 0.02 94 1010.2
20200409111703 64 332 3.0 5.0 0.00 0.39 0.02 94 1010.1
20200409111604 64 333 2.0 5.0 0.00 0.39 0.02 94 1010.0
20200409111504 64 336 3.0 5.0 0.00 0.39 0.02 94 1009.7
20200409111404 64 333 2.0 5.0 0.00 0.39 0.02 94 1009.8
20200409111303 64 331 2.0 4.0 0.00 0.39 0.02 94 1009.8
20200409111206 64 315 1.0 4.0 0.00 0.39 0.02 94 1009.7
20200409111103 64 194 1.0 4.0 0.00 0.39 0.02 94 1009.6
20200409111004 64 160 1.0 4.0 0.00 0.39 0.02 94 1009.5
20200409110903 64 150 1.0 2.0 0.00 0.39 0.02 94 1009.6
20200409110803 64 147 1.0 2.0 0.00 0.39 0.02 94 1009.5
20200409110703 64 144 1.0 3.0 0.00 0.39 0.02 94 1009.5
20200409110603 64 142 1.0 3.0 0.00 0.39 0.02 94 1009.4
20200409110515 64 152 0.0 3.0 0.00 0.39 0.02 94 1009.1
20200409110504 64 141 1.0 3.0 0.00 0.39 0.02 94 1009.4
20200409110404 64 139 1.0 3.0 0.00 0.39 0.02 94 1009.3
20200409110303 64 135 1.0 3.0 0.00 0.39 0.02 94 1009.3
20200409110203 64 127 1.0 3.0 0.00 0.39 0.02 94 1009.1
20200409110104 64 126 1.0 3.0 0.00 0.39 0.02 94 1009.0
20200409110004 64 125 1.0 3.0 0.00 0.39 0.02 94 1008.8
20200409105903 64 115 1.0 3.0 0.00 0.39 0.02 94 1008.7
20200409105804 64 101 1.0 5.0 0.00 0.39 0.02 94 1008.7
20200409105703 64 90 1.0 5.0 0.00 0.39 0.02 93 1008.8
20200409105603 64 83 1.0 5.0 0.00 0.39 0.02 93 1008.9
20200409105504 65 70 2.0 5.0 0.00 0.39 0.02 93 1009.0
20200409105403 65 61 2.0 6.0 0.00 0.39 0.02 93 1009.1
20200409105303 65 54 2.0 6.0 0.00 0.39 0.02 93 1009.1
20200409105203 65 45 2.0 6.0 0.00 0.39 0.02 93 1009.1
20200409105103 65 44 2.0 6.0 0.00 0.39 0.02 93 1008.9
20200409105004 65 44 2.0 6.0 0.00 0.39 0.02 93 1008.9
20200409104904 65 40 3.0 7.0 0.00 0.39 0.02 92 1008.8
20200409104803 66 35 3.0 10.0 0.00 0.39 0.02 92 1009.0
20200409104704 66 32 3.0 10.0 0.00 0.39 0.02 92 1009.1
20200409104604 66 31 3.0 10.0 0.00 0.39 0.02 92 1009.1
20200409104511 65 22 2.0 10.0 0.00 0.39 0.02 93 1008.8
20200409104503 66 29 3.0 10.0 0.00 0.39 0.02 93 1009.2
20200409104404 66 27 3.0 10.0 0.00 0.39 0.02 93 1009.2
20200409104303 66 23 4.0 10.0 0.00 0.39 0.02 93 1009.1
20200409104203 66 21 4.0 10.0 0.00 0.39 0.02 93 1009.2
20200409104103 66 13 4.0 11.0 0.00 0.39 0.02 93 1009.2
20200409104005 66 10 4.0 11.0 0.00 0.39 0.02 93 1009.1
20200409103904 66 5 4.0 11.0 0.00 0.39 0.02 93 1009.2
20200409103804 66 358 5.0 11.0 0.00 0.39 0.02 92 1009.2
20200409103703 66 352 4.0 11.0 0.00 0.39 0.02 92 1009.2
20200409103603 66 353 5.0 11.0 0.00 0.39 0.02 92 1009.3
20200409103507 66 43 3.0 11.0 0.00 0.39 0.02 92 1008.9
20200409103503 66 354 5.0 11.0 0.00 0.39 0.02 92 1009.1
20200409103404 66 354 5.0 11.0 0.00 0.39 0.02 93 1009.2
20200409103303 66 355 5.0 11.0 0.00 0.39 0.02 93 1009.1
20200409103203 66 354 5.0 11.0 0.00 0.39 0.02 93 1009.1
20200409103103 66 358 4.0 10.0 0.00 0.39 0.02 93 1009.2
20200409103003 66 356 4.0 10.0 0.00 0.39 0.02 93 1009.2
20200409102904 66 356 5.0 10.0 0.00 0.39 0.02 93 1009.1
20200409102803 66 357 4.0 9.0 0.00 0.39 0.02 93 1009.0
20200409102703 67 359 5.0 11.0 0.00 0.39 0.02 93 1008.8
20200409102603 67 357 5.0 11.0 0.00 0.39 0.02 93 1008.9